Time,TemperatureF,DewpointF,PressureIn,WindDirection,WindDirectionDegrees,WindSpeedMPH,WindSpeedGustMPH,Humidity,HourlyPrecipIn,Conditions,Clouds,dailyrainin,SoftwareType,DateUTC
2013-01-11 00:00:00,61.7,51.4,29.20,SSE,167,9.2,10.1,69,0.00,,---,0.00,VWS V14.01,2013-01-11 06:00:00,
2013-01-11 00:01:00,61.7,51.4,29.20,South,172,20.1,20.1,69,0.00,,---,0.00,VWS V14.01,2013-01-11 06:01:00,
2013-01-11 00:02:00,61.7,51.4,29.21,South,172,20.1,20.1,69,0.00,,---,0.00,VWS V14.01,2013-01-11 06:02:00,
2013-01-11 00:03:00,61.7,51.4,29.20,South,170,16.8,20.1,69,0.00,,---,0.00,VWS V14.01,2013-01-11 06:03:00,
2013-01-11 00:04:00,61.7,51.4,29.21,ESE,120,13.2,16.8,69,0.00,,---,0.00,VWS V14.01,2013-01-11 06:04:00,
2013-01-11 00:05:00,61.7,51.4,29.20,SSE,149,12.8,13.2,69,0.00,,---,0.00,VWS V14.01,2013-01-11 06:05:00,
2013-01-11 00:06:00,61.7,51.4,29.20,South,172,20.6,20.6,69,0.00,,---,0.00,VWS V14.01,2013-01-11 06:06:00,
2013-01-11 00:07:00,61.7,51.0,29.21,SE,133,10.5,10.5,68,0.00,,---,0.00,VWS V14.01,2013-01-11 06:07:00,
2013-01-11 00:08:00,61.7,51.0,29.20,South,172,12.3,12.3,68,0.00,,---,0.00,VWS V14.01,2013-01-11 06:08:00,
2013-01-11 00:09:00,61.7,51.0,29.21,South,172,12.3,12.3,68,0.00,,---,0.00,VWS V14.01,2013-01-11 06:09:00,
2013-01-11 00:10:00,61.7,51.0,29.20,SSE,148,16.8,16.8,68,0.00,,---,0.00,VWS V14.01,2013-01-11 06:10:00,
2013-01-11 00:11:00,61.7,51.0,29.20,SSE,148,16.8,16.8,68,0.00,,---,0.00,VWS V14.01,2013-01-11 06:11:00,
2013-01-11 00:12:00,61.7,51.0,29.21,SE,129,11.0,11.0,68,0.00,,---,0.00,VWS V14.01,2013-01-11 06:12:00,
2013-01-11 00:13:00,61.7,51.0,29.20,South,176,11.0,11.0,68,0.00,,---,0.00,VWS V14.01,2013-01-11 06:13:00,
2013-01-11 00:14:00,61.7,51.0,29.21,South,176,11.0,11.0,68,0.00,,---,0.00,VWS V14.01,2013-01-11 06:14:00,
2013-01-11 00:15:00,61.7,51.0,29.20,SE,127,13.2,15.0,68,0.00,,---,0.00,VWS V14.01,2013-01-11 06:15:00,
2013-01-11 00:16:00,61.7,51.0,29.20,SE,144,23.7,23.7,68,0.00,,---,0.00,VWS V14.01,2013-01-11 06:16:00,
2013-01-11 00:17:00,61.7,51.0,29.21,ESE,119,5.4,5.4,68,0.00,,---,0.00,VWS V14.01,2013-01-11 06:17:00,
2013-01-11 00:18:00,61.7,51.0,29.20,SSE,162,5.8,5.8,68,0.00,,---,0.00,VWS V14.01,2013-01-11 06:18:00,
2013-01-11 00:19:00,61.7,51.0,29.21,SSE,162,5.8,5.8,68,0.00,,---,0.00,VWS V14.01,2013-01-11 06:19:00,
2013-01-11 00:20:00,61.7,51.0,29.20,South,170,8.1,8.1,68,0.00,,---,0.00,VWS V14.01,2013-01-11 06:20:00,
2013-01-11 00:21:00,61.7,51.0,29.20,SSE,166,11.4,11.4,68,0.00,,---,0.00,VWS V14.01,2013-01-11 06:21:00,
2013-01-11 00:22:00,61.7,51.0,29.21,South,169,12.8,15.4,68,0.00,,---,0.00,VWS V14.01,2013-01-11 06:22:00,
2013-01-11 00:23:00,61.7,51.0,29.21,South,169,12.8,15.4,68,0.00,,---,0.00,VWS V14.01,2013-01-11 06:23:00,
2013-01-11 00:24:00,61.7,51.0,29.21,SE,139,11.0,12.8,68,0.00,,---,0.00,VWS V14.01,2013-01-11 06:24:00,
2013-01-11 00:25:00,61.7,51.0,29.20,SE,139,11.0,11.0,68,0.00,,---,0.00,VWS V14.01,2013-01-11 06:25:00,
2013-01-11 00:26:00,61.7,51.0,29.20,SE,126,14.1,14.1,68,0.00,,---,0.00,VWS V14.01,2013-01-11 06:26:00,
2013-01-11 00:27:00,61.7,51.0,29.21,SSE,151,17.9,17.9,68,0.00,,---,0.00,VWS V14.01,2013-01-11 06:27:00,
2013-01-11 00:28:00,61.7,51.0,29.21,SSE,151,17.9,17.9,68,0.00,,---,0.00,VWS V14.01,2013-01-11 06:28:00,
2013-01-11 00:29:00,61.7,51.0,29.21,South,191,13.6,13.6,68,0.00,,---,0.00,VWS V14.01,2013-01-11 06:29:00,
2013-01-11 00:30:00,61.7,51.0,29.21,SSW,211,10.5,13.6,68,0.00,,---,0.00,VWS V14.01,2013-01-11 06:30:00,
2013-01-11 00:31:00,61.7,51.0,29.20,SSE,149,8.7,19.7,68,0.00,,---,0.00,VWS V14.01,2013-01-11 06:31:00,
2013-01-11 00:32:00,61.7,51.0,29.21,SSW,197,27.5,27.5,68,0.00,,---,0.00,VWS V14.01,2013-01-11 06:32:00,
2013-01-11 00:33:00,61.7,51.0,29.21,South,173,17.4,17.4,68,0.00,,---,0.00,VWS V14.01,2013-01-11 06:33:00,
2013-01-11 00:34:00,61.7,51.0,29.21,South,173,17.4,17.4,68,0.00,,---,0.00,VWS V14.01,2013-01-11 06:34:00,
2013-01-11 00:35:00,61.7,51.0,29.21,South,173,17.4,17.4,68,0.00,,---,0.00,VWS V14.01,2013-01-11 06:35:00,
2013-01-11 00:36:00,61.7,51.0,29.20,South,173,17.4,17.4,68,0.00,,---,0.00,VWS V14.01,2013-01-11 06:36:00,
2013-01-11 00:37:00,61.7,51.0,29.21,South,190,8.7,8.7,68,0.00,,---,0.00,VWS V14.01,2013-01-11 06:37:00,
2013-01-11 00:38:00,61.7,51.0,29.21,SSE,161,6.3,8.7,68,0.00,,---,0.00,VWS V14.01,2013-01-11 06:38:00,
2013-01-11 00:39:00,61.7,51.0,29.21,SSE,163,8.3,8.3,68,0.00,,---,0.00,VWS V14.01,2013-01-11 06:39:00,
2013-01-11 00:40:00,61.7,51.0,29.21,SSE,149,10.5,10.5,68,0.00,,---,0.00,VWS V14.01,2013-01-11 06:40:00,
2013-01-11 00:41:00,61.7,51.0,29.20,South,187,8.3,10.5,68,0.00,,---,0.00,VWS V14.01,2013-01-11 06:41:00,
2013-01-11 00:42:00,61.7,51.0,29.21,SSE,157,8.7,8.7,68,0.00,,---,0.00,VWS V14.01,2013-01-11 06:42:00,
2013-01-11 00:43:00,61.7,51.0,29.21,South,181,7.6,7.6,68,0.00,,---,0.00,VWS V14.01,2013-01-11 06:43:00,
2013-01-11 00:44:00,61.7,51.4,29.21,South,177,8.7,8.7,69,0.00,,---,0.00,VWS V14.01,2013-01-11 06:44:00,
2013-01-11 00:45:00,61.7,51.4,29.21,SSE,167,13.2,13.2,69,0.00,,---,0.00,VWS V14.01,2013-01-11 06:45:00,
2013-01-11 00:46:00,61.7,51.4,29.20,SSE,148,8.3,13.2,69,0.00,,---,0.00,VWS V14.01,2013-01-11 06:46:00,
2013-01-11 00:47:00,61.7,51.4,29.20,SSE,165,8.3,12.3,69,0.00,,---,0.00,VWS V14.01,2013-01-11 06:47:00,
2013-01-11 00:48:00,61.7,51.4,29.23,SSE,154,10.1,10.1,69,0.00,,---,0.00,VWS V14.01,2013-01-11 06:48:00,
2013-01-11 00:49:00,61.7,51.4,29.23,SSE,159,10.1,10.1,69,0.00,,---,0.00,VWS V14.01,2013-01-11 06:49:00,
2013-01-11 00:50:00,61.7,51.0,29.23,SSE,159,10.1,10.1,68,0.00,,---,0.00,VWS V14.01,2013-01-11 06:50:00,
2013-01-11 00:51:00,61.7,51.0,29.24,SSE,159,10.1,10.1,68,0.00,,---,0.00,VWS V14.01,2013-01-11 06:51:00,
2013-01-11 00:52:00,61.7,51.0,29.24,SSE,159,8.7,10.1,68,0.00,,---,0.00,VWS V14.01,2013-01-11 06:52:00,
2013-01-11 00:53:00,61.7,51.0,29.23,SSE,159,8.7,8.7,68,0.00,,---,0.00,VWS V14.01,2013-01-11 06:53:00,
2013-01-11 00:54:00,61.7,51.0,29.23,SSE,159,8.7,8.7,68,0.00,,---,0.00,VWS V14.01,2013-01-11 06:54:00,
2013-01-11 00:55:00,61.7,51.0,29.23,SSE,163,10.5,10.5,68,0.00,,---,0.00,VWS V14.01,2013-01-11 06:55:00,
2013-01-11 00:56:00,61.7,51.0,29.24,South,177,15.4,15.4,68,0.00,,---,0.00,VWS V14.01,2013-01-11 06:56:00,
2013-01-11 00:57:00,61.7,51.0,29.24,South,177,15.4,15.4,68,0.00,,---,0.00,VWS V14.01,2013-01-11 06:57:00,
2013-01-11 00:58:00,61.9,51.2,29.23,South,177,15.4,15.4,68,0.00,,---,0.00,VWS V14.01,2013-01-11 06:58:00,
2013-01-11 00:59:00,61.9,51.2,29.24,SSE,156,11.0,15.4,68,0.00,,---,0.00,VWS V14.01,2013-01-11 06:59:00,
2013-01-11 01:00:00,61.9,51.2,29.23,SSE,156,11.0,11.0,68,0.00,,---,0.00,VWS V14.01,2013-01-11 07:00:00,
2013-01-11 01:01:00,61.9,51.2,29.24,South,175,15.4,15.4,68,0.00,,---,0.00,VWS V14.01,2013-01-11 07:01:00,
2013-01-11 01:02:00,61.9,51.2,29.24,South,175,15.4,15.4,68,0.00,,---,0.00,VWS V14.01,2013-01-11 07:02:00,
2013-01-11 01:03:00,61.9,51.2,29.23,SSE,155,16.8,16.8,68,0.00,,---,0.00,VWS V14.01,2013-01-11 07:03:00,
2013-01-11 01:04:00,61.9,51.2,29.24,SSE,155,16.8,16.8,68,0.00,,---,0.00,VWS V14.01,2013-01-11 07:04:00,
2013-01-11 01:05:00,61.9,51.2,29.23,SSE,155,16.8,16.8,68,0.00,,---,0.00,VWS V14.01,2013-01-11 07:05:00,
2013-01-11 01:06:00,61.9,51.2,29.24,SSE,155,16.8,16.8,68,0.00,,---,0.00,VWS V14.01,2013-01-11 07:06:00,
2013-01-11 01:07:00,61.9,51.2,29.24,SSE,155,16.8,16.8,68,0.00,,---,0.00,VWS V14.01,2013-01-11 07:07:00,
2013-01-11 01:08:00,61.9,51.2,29.23,SSE,155,16.8,16.8,68,0.00,,---,0.00,VWS V14.01,2013-01-11 07:08:00,
2013-01-11 01:09:00,61.9,51.2,29.24,SSE,155,10.1,16.8,68,0.00,,---,0.00,VWS V14.01,2013-01-11 07:09:00,
2013-01-11 01:10:00,61.9,51.2,29.23,SE,128,10.1,14.1,68,0.00,,---,0.00,VWS V14.01,2013-01-11 07:10:00,
2013-01-11 01:11:00,61.9,51.2,29.24,SSE,150,5.8,10.1,68,0.00,,---,0.00,VWS V14.01,2013-01-11 07:11:00,
2013-01-11 01:12:00,61.9,51.2,29.24,SSE,163,7.6,7.6,68,0.00,,---,0.00,VWS V14.01,2013-01-11 07:12:00,
2013-01-11 01:13:00,61.9,51.2,29.23,SE,140,7.6,7.6,68,0.00,,---,0.00,VWS V14.01,2013-01-11 07:13:00,
2013-01-11 01:14:00,61.9,51.2,29.23,SSE,155,9.6,9.6,68,0.00,,---,0.00,VWS V14.01,2013-01-11 07:14:00,
2013-01-11 01:15:00,61.9,51.2,29.23,SSE,155,9.6,9.6,68,0.00,,---,0.00,VWS V14.01,2013-01-11 07:15:00,
2013-01-11 01:16:00,61.9,51.2,29.24,SSE,155,9.6,9.6,68,0.00,,---,0.00,VWS V14.01,2013-01-11 07:16:00,
2013-01-11 01:17:00,61.9,51.2,29.24,SSE,158,10.5,14.5,68,0.00,,---,0.00,VWS V14.01,2013-01-11 07:17:00,
2013-01-11 01:18:00,61.9,51.2,29.21,SSE,155,10.5,10.5,68,0.00,,---,0.00,VWS V14.01,2013-01-11 07:18:00,
2013-01-11 01:19:00,61.9,51.2,29.21,SSE,155,10.5,10.5,68,0.00,,---,0.00,VWS V14.01,2013-01-11 07:19:00,
2013-01-11 01:20:00,61.9,51.6,29.21,SSE,155,10.5,10.5,69,0.00,,---,0.00,VWS V14.01,2013-01-11 07:20:00,
2013-01-11 01:21:00,61.9,51.6,29.21,SSW,192,15.0,15.0,69,0.00,,---,0.00,VWS V14.01,2013-01-11 07:21:00,
2013-01-11 01:22:00,61.9,51.6,29.20,South,174,8.3,15.0,69,0.00,,---,0.00,VWS V14.01,2013-01-11 07:22:00,
2013-01-11 01:23:00,61.9,51.2,29.20,South,174,8.3,8.3,68,0.00,,---,0.00,VWS V14.01,2013-01-11 07:23:00,
2013-01-11 01:24:00,61.9,51.2,29.21,South,174,8.3,8.3,68,0.00,,---,0.00,VWS V14.01,2013-01-11 07:24:00,
2013-01-11 01:25:00,61.9,51.2,29.21,South,174,8.3,8.3,68,0.00,,---,0.00,VWS V14.01,2013-01-11 07:25:00,
2013-01-11 01:26:00,61.9,51.2,29.20,SE,146,8.3,8.3,68,0.00,,---,0.00,VWS V14.01,2013-01-11 07:26:00,
2013-01-11 01:27:00,61.9,51.2,29.20,SE,126,5.8,8.3,68,0.00,,---,0.00,VWS V14.01,2013-01-11 07:27:00,
2013-01-11 01:28:00,62.1,51.4,29.20,SE,126,5.8,5.8,68,0.00,,---,0.00,VWS V14.01,2013-01-11 07:28:00,
2013-01-11 01:29:00,62.1,51.4,29.21,SE,126,5.8,5.8,68,0.00,,---,0.00,VWS V14.01,2013-01-11 07:29:00,
2013-01-11 01:30:00,62.1,51.4,29.21,SSE,157,10.5,10.5,68,0.00,,---,0.00,VWS V14.01,2013-01-11 07:30:00,
2013-01-11 01:31:00,62.1,51.4,29.21,SSE,167,10.5,10.5,68,0.00,,---,0.00,VWS V14.01,2013-01-11 07:31:00,
2013-01-11 01:32:00,62.1,51.4,29.20,SSE,167,10.5,10.5,68,0.00,,---,0.00,VWS V14.01,2013-01-11 07:32:00,
2013-01-11 01:33:00,62.1,51.4,29.20,SSE,167,10.5,10.5,68,0.00,,---,0.00,VWS V14.01,2013-01-11 07:33:00,
2013-01-11 01:34:00,62.1,51.4,29.21,SSE,167,10.5,10.5,68,0.00,,---,0.00,VWS V14.01,2013-01-11 07:34:00,
2013-01-11 01:35:00,62.1,51.4,29.21,SSE,163,11.0,11.0,68,0.00,,---,0.00,VWS V14.01,2013-01-11 07:35:00,
2013-01-11 01:36:00,62.1,51.4,29.21,South,174,8.1,11.0,68,0.00,,---,0.00,VWS V14.01,2013-01-11 07:36:00,
2013-01-11 01:37:00,62.1,51.4,29.20,South,181,11.0,11.0,68,0.00,,---,0.00,VWS V14.01,2013-01-11 07:37:00,
2013-01-11 01:38:00,62.1,51.4,29.20,SSE,162,10.5,11.0,68,0.00,,---,0.00,VWS V14.01,2013-01-11 07:38:00,
2013-01-11 01:39:00,62.1,51.4,29.21,SSE,157,13.2,13.2,68,0.00,,---,0.00,VWS V14.01,2013-01-11 07:39:00,
2013-01-11 01:40:00,62.1,51.4,29.21,SSE,157,13.2,13.2,68,0.00,,---,0.00,VWS V14.01,2013-01-11 07:40:00,
2013-01-11 01:41:00,62.1,51.4,29.21,South,179,8.1,13.2,68,0.00,,---,0.00,VWS V14.01,2013-01-11 07:41:00,
2013-01-11 01:42:00,62.2,51.6,29.20,South,172,6.3,8.3,68,0.00,,---,0.00,VWS V14.01,2013-01-11 07:42:00,
2013-01-11 01:43:00,62.2,51.6,29.20,South,172,6.3,6.3,68,0.00,,---,0.00,VWS V14.01,2013-01-11 07:43:00,
2013-01-11 01:44:00,62.2,51.6,29.21,South,177,10.1,10.1,68,0.00,,---,0.00,VWS V14.01,2013-01-11 07:44:00,
2013-01-11 01:45:00,62.2,51.6,29.21,SSE,157,5.4,5.4,68,0.00,,---,0.00,VWS V14.01,2013-01-11 07:45:00,
2013-01-11 01:46:00,62.1,51.4,29.21,SSE,157,5.4,5.4,68,0.00,,---,0.00,VWS V14.01,2013-01-11 07:46:00,
2013-01-11 01:47:00,62.1,51.4,29.20,SSE,157,5.4,5.4,68,0.00,,---,0.00,VWS V14.01,2013-01-11 07:47:00,
2013-01-11 01:48:00,62.1,51.4,29.20,SSE,159,8.3,8.7,68,0.00,,---,0.00,VWS V14.01,2013-01-11 07:48:00,
2013-01-11 01:49:00,62.2,52.0,29.21,South,176,8.3,10.1,69,0.00,,---,0.00,VWS V14.01,2013-01-11 07:49:00,
2013-01-11 01:50:00,62.2,52.0,29.21,South,176,8.3,10.1,69,0.00,,---,0.00,VWS V14.01,2013-01-11 07:50:00,
2013-01-11 01:51:00,62.2,52.0,29.21,SE,131,8.7,8.7,69,0.00,,---,0.00,VWS V14.01,2013-01-11 07:51:00,
2013-01-11 01:52:00,62.2,52.0,29.20,SSE,151,5.4,8.7,69,0.00,,---,0.00,VWS V14.01,2013-01-11 07:52:00,
2013-01-11 01:53:00,62.2,52.0,29.20,SSE,149,7.6,7.6,69,0.00,,---,0.00,VWS V14.01,2013-01-11 07:53:00,
2013-01-11 01:54:00,62.2,52.0,29.23,SSE,149,7.6,7.6,69,0.00,,---,0.00,VWS V14.01,2013-01-11 07:54:00,
2013-01-11 01:55:00,62.2,52.0,29.23,SSE,149,7.6,7.6,69,0.00,,---,0.00,VWS V14.01,2013-01-11 07:55:00,
2013-01-11 01:56:00,62.2,52.0,29.23,South,175,12.3,12.3,69,0.00,,---,0.00,VWS V14.01,2013-01-11 07:56:00,
2013-01-11 01:57:00,62.2,52.0,29.24,SSW,192,10.5,12.3,69,0.00,,---,0.00,VWS V14.01,2013-01-11 07:57:00,
2013-01-11 01:58:00,62.2,52.0,29.24,SSE,164,7.6,10.5,69,0.00,,---,0.00,VWS V14.01,2013-01-11 07:58:00,
2013-01-11 01:59:00,62.2,52.3,29.23,SE,137,10.1,10.1,70,0.00,,---,0.00,VWS V14.01,2013-01-11 07:59:00,
2013-01-11 02:00:00,62.2,52.3,29.23,SE,137,10.1,10.1,70,0.00,,---,0.00,VWS V14.01,2013-01-11 08:00:00,
2013-01-11 02:01:00,62.2,52.3,29.23,SSE,166,8.3,10.1,70,0.00,,---,0.00,VWS V14.01,2013-01-11 08:01:00,
2013-01-11 02:02:00,62.2,52.3,29.24,SSE,161,6.3,8.3,70,0.00,,---,0.00,VWS V14.01,2013-01-11 08:02:00,
2013-01-11 02:03:00,62.2,52.3,29.24,SSE,156,6.3,8.7,70,0.00,,---,0.00,VWS V14.01,2013-01-11 08:03:00,
2013-01-11 02:04:00,62.2,52.3,29.23,South,184,8.7,11.4,70,0.00,,---,0.00,VWS V14.01,2013-01-11 08:04:00,
2013-01-11 02:05:00,62.2,52.3,29.23,South,184,8.7,8.7,70,0.00,,---,0.00,VWS V14.01,2013-01-11 08:05:00,
2013-01-11 02:06:00,62.2,52.3,29.23,South,184,8.7,8.7,70,0.00,,---,0.00,VWS V14.01,2013-01-11 08:06:00,
2013-01-11 02:07:00,62.2,52.7,29.24,ESE,104,9.2,9.2,71,0.00,,---,0.00,VWS V14.01,2013-01-11 08:07:00,
2013-01-11 02:08:00,62.2,52.7,29.24,SE,142,7.6,9.2,71,0.00,,---,0.00,VWS V14.01,2013-01-11 08:08:00,
2013-01-11 02:09:00,62.2,52.7,29.24,SSE,160,5.4,7.6,71,0.00,,---,0.00,VWS V14.01,2013-01-11 08:09:00,
2013-01-11 02:10:00,62.2,52.7,29.23,SSE,160,5.4,5.4,71,0.00,,---,0.00,VWS V14.01,2013-01-11 08:10:00,
2013-01-11 02:11:00,62.2,53.1,29.23,SSE,160,5.4,5.4,72,0.00,,---,0.00,VWS V14.01,2013-01-11 08:11:00,
2013-01-11 02:12:00,62.2,53.1,29.24,SSE,166,8.3,12.8,72,0.00,,---,0.00,VWS V14.01,2013-01-11 08:12:00,
2013-01-11 02:13:00,62.2,53.1,29.24,SSE,147,7.6,8.3,72,0.00,,---,0.00,VWS V14.01,2013-01-11 08:13:00,
2013-01-11 02:14:00,62.1,52.9,29.24,SSE,147,7.6,7.6,72,0.00,,---,0.00,VWS V14.01,2013-01-11 08:14:00,
2013-01-11 02:15:00,62.1,52.9,29.23,South,169,8.1,8.1,72,0.00,,---,0.00,VWS V14.01,2013-01-11 08:15:00,
2013-01-11 02:16:00,62.1,52.9,29.23,South,170,6.3,6.3,72,0.00,,---,0.00,VWS V14.01,2013-01-11 08:16:00,
2013-01-11 02:17:00,62.1,52.9,29.24,South,170,6.3,6.3,72,0.00,,---,0.00,VWS V14.01,2013-01-11 08:17:00,
2013-01-11 02:18:00,62.1,52.9,29.24,ESE,118,8.7,8.7,72,0.00,,---,0.00,VWS V14.01,2013-01-11 08:18:00,
2013-01-11 02:19:00,62.1,52.9,29.24,ESE,118,8.7,8.7,72,0.00,,---,0.00,VWS V14.01,2013-01-11 08:19:00,
2013-01-11 02:20:00,62.1,52.9,29.23,ESE,118,8.7,8.7,72,0.00,,---,0.00,VWS V14.01,2013-01-11 08:20:00,
2013-01-11 02:21:00,62.1,53.3,29.23,South,175,13.2,13.2,73,0.00,,---,0.00,VWS V14.01,2013-01-11 08:21:00,
2013-01-11 02:22:00,62.1,53.3,29.24,SSE,164,11.0,13.2,73,0.00,,---,0.00,VWS V14.01,2013-01-11 08:22:00,
2013-01-11 02:23:00,62.1,53.3,29.24,SSE,152,11.0,13.2,73,0.00,,---,0.00,VWS V14.01,2013-01-11 08:23:00,
2013-01-11 02:24:00,62.1,53.3,29.24,SSE,152,11.0,11.0,73,0.00,,---,0.00,VWS V14.01,2013-01-11 08:24:00,
2013-01-11 02:25:00,62.1,53.7,29.23,SSE,154,8.7,8.7,74,0.00,,---,0.00,VWS V14.01,2013-01-11 08:25:00,
2013-01-11 02:26:00,62.1,53.7,29.23,SSE,154,8.7,8.7,74,0.00,,---,0.00,VWS V14.01,2013-01-11 08:26:00,
2013-01-11 02:27:00,62.1,53.7,29.24,SSE,154,8.7,8.7,74,0.00,,---,0.00,VWS V14.01,2013-01-11 08:27:00,
2013-01-11 02:28:00,62.1,53.7,29.24,SSE,148,11.4,14.5,74,0.00,,---,0.00,VWS V14.01,2013-01-11 08:28:00,
2013-01-11 02:29:00,62.2,53.9,29.24,SSE,158,13.6,13.6,74,0.00,,---,0.00,VWS V14.01,2013-01-11 08:29:00,
2013-01-11 02:30:00,62.2,53.9,29.23,South,171,8.3,10.5,74,0.00,,---,0.00,VWS V14.01,2013-01-11 08:30:00,
2013-01-11 02:31:00,62.2,53.9,29.23,South,179,10.5,10.5,74,0.00,,---,0.00,VWS V14.01,2013-01-11 08:31:00,
2013-01-11 02:32:00,62.2,53.9,29.24,South,179,10.5,10.5,74,0.00,,---,0.00,VWS V14.01,2013-01-11 08:32:00,
2013-01-11 02:33:00,62.2,53.9,29.24,SSE,158,11.0,11.0,74,0.00,,---,0.00,VWS V14.01,2013-01-11 08:33:00,
2013-01-11 02:34:00,62.2,53.9,29.24,South,169,8.1,11.0,74,0.00,,---,0.00,VWS V14.01,2013-01-11 08:34:00,
2013-01-11 02:35:00,62.2,53.9,29.23,South,169,8.1,8.1,74,0.00,,---,0.00,VWS V14.01,2013-01-11 08:35:00,
2013-01-11 02:36:00,62.2,53.9,29.23,South,178,12.8,12.8,74,0.00,,---,0.00,VWS V14.01,2013-01-11 08:36:00,
2013-01-11 02:37:00,62.2,53.5,29.23,South,176,8.7,8.7,73,0.00,,---,0.00,VWS V14.01,2013-01-11 08:37:00,
2013-01-11 02:38:00,62.2,53.5,29.24,South,175,10.5,10.5,73,0.00,,---,0.00,VWS V14.01,2013-01-11 08:38:00,
2013-01-11 02:39:00,62.2,53.5,29.24,SSE,166,8.7,10.5,73,0.00,,---,0.00,VWS V14.01,2013-01-11 08:39:00,
2013-01-11 02:40:00,62.4,53.7,29.23,SSE,166,8.7,8.7,73,0.00,,---,0.00,VWS V14.01,2013-01-11 08:40:00,
2013-01-11 02:41:00,62.4,53.7,29.23,SE,129,8.7,8.7,73,0.00,,---,0.00,VWS V14.01,2013-01-11 08:41:00,
2013-01-11 02:42:00,62.4,53.7,29.23,SE,129,8.7,8.7,73,0.00,,---,0.00,VWS V14.01,2013-01-11 08:42:00,
2013-01-11 02:43:00,62.4,53.7,29.24,SSE,160,7.6,8.7,73,0.00,,---,0.00,VWS V14.01,2013-01-11 08:43:00,
2013-01-11 02:44:00,62.4,53.7,29.24,SSE,162,7.6,7.6,73,0.00,,---,0.00,VWS V14.01,2013-01-11 08:44:00,
2013-01-11 02:45:00,62.4,53.7,29.23,SSE,152,10.1,10.1,73,0.00,,---,0.00,VWS V14.01,2013-01-11 08:45:00,
2013-01-11 02:46:00,62.4,53.7,29.23,SSE,152,10.1,10.1,73,0.00,,---,0.00,VWS V14.01,2013-01-11 08:46:00,
2013-01-11 02:47:00,62.4,53.7,29.23,SSE,158,8.7,10.1,73,0.00,,---,0.00,VWS V14.01,2013-01-11 08:47:00,
2013-01-11 02:48:00,62.4,53.7,29.24,SSE,158,8.7,8.7,73,0.00,,---,0.00,VWS V14.01,2013-01-11 08:48:00,
2013-01-11 02:49:00,62.4,53.7,29.24,SSE,156,8.3,8.7,73,0.00,,---,0.00,VWS V14.01,2013-01-11 08:49:00,
2013-01-11 02:50:00,62.4,53.7,29.24,South,173,6.3,8.3,73,0.00,,---,0.00,VWS V14.01,2013-01-11 08:50:00,
2013-01-11 02:51:00,62.4,53.7,29.23,West,280,13.2,13.2,73,0.00,,---,0.00,VWS V14.01,2013-01-11 08:51:00,
2013-01-11 02:52:00,62.4,53.7,29.23,SSE,167,8.3,8.3,73,0.00,,---,0.00,VWS V14.01,2013-01-11 08:52:00,
2013-01-11 02:53:00,62.6,53.5,29.24,SSE,167,8.3,8.3,72,0.00,,---,0.00,VWS V14.01,2013-01-11 08:53:00,
2013-01-11 02:54:00,62.6,53.5,29.24,South,172,8.7,11.0,72,0.00,,---,0.00,VWS V14.01,2013-01-11 08:54:00,
2013-01-11 02:55:00,62.6,53.5,29.24,West,262,6.3,8.7,72,0.00,,---,0.00,VWS V14.01,2013-01-11 08:55:00,
2013-01-11 02:56:00,62.6,53.5,29.23,West,262,6.3,6.3,72,0.00,,---,0.00,VWS V14.01,2013-01-11 08:56:00,
2013-01-11 02:57:00,62.6,53.5,29.23,South,181,5.4,5.4,72,0.00,,---,0.00,VWS V14.01,2013-01-11 08:57:00,
2013-01-11 02:58:00,62.6,53.5,29.24,SE,137,5.4,5.4,72,0.00,,---,0.00,VWS V14.01,2013-01-11 08:58:00,
2013-01-11 02:59:00,62.6,53.5,29.24,SE,137,5.4,5.4,72,0.00,,---,0.00,VWS V14.01,2013-01-11 08:59:00,
2013-01-11 03:00:00,62.4,53.7,29.24,South,178,10.1,10.1,73,0.00,,---,0.00,VWS V14.01,2013-01-11 09:00:00,
2013-01-11 03:01:00,62.4,53.7,29.23,South,176,6.3,6.3,73,0.00,,---,0.00,VWS V14.01,2013-01-11 09:01:00,
2013-01-11 03:02:00,62.4,53.7,29.23,SSE,154,10.5,10.5,73,0.00,,---,0.00,VWS V14.01,2013-01-11 09:02:00,
2013-01-11 03:03:00,62.4,53.7,29.24,SSE,154,10.5,10.5,73,0.00,,---,0.00,VWS V14.01,2013-01-11 09:03:00,
2013-01-11 03:04:00,62.4,53.7,29.24,ESE,107,5.4,10.5,73,0.00,,---,0.00,VWS V14.01,2013-01-11 09:04:00,
2013-01-11 03:05:00,62.4,53.7,29.24,SSE,155,8.1,11.0,73,0.00,,---,0.00,VWS V14.01,2013-01-11 09:05:00,
2013-01-11 03:06:00,62.4,53.7,29.23,South,177,9.6,9.6,73,0.00,,---,0.00,VWS V14.01,2013-01-11 09:06:00,
2013-01-11 03:07:00,62.4,53.7,29.23,South,177,9.6,9.6,73,0.00,,---,0.00,VWS V14.01,2013-01-11 09:07:00,
2013-01-11 03:08:00,62.4,53.7,29.24,South,169,6.7,9.6,73,0.00,,---,0.00,VWS V14.01,2013-01-11 09:08:00,
2013-01-11 03:09:00,62.4,53.7,29.24,SE,136,5.8,6.7,73,0.00,,---,0.00,VWS V14.01,2013-01-11 09:09:00,
2013-01-11 03:10:00,62.4,53.7,29.24,South,177,7.2,7.2,73,0.00,,---,0.00,VWS V14.01,2013-01-11 09:10:00,
2013-01-11 03:11:00,62.4,53.7,29.23,SSW,196,12.8,12.8,73,0.00,,---,0.00,VWS V14.01,2013-01-11 09:11:00,
2013-01-11 03:12:00,62.4,53.7,29.23,SSW,196,12.8,12.8,73,0.00,,---,0.00,VWS V14.01,2013-01-11 09:12:00,
2013-01-11 03:13:00,62.4,53.7,29.24,SE,131,11.0,12.8,73,0.00,,---,0.00,VWS V14.01,2013-01-11 09:13:00,
2013-01-11 03:14:00,62.4,53.7,29.24,South,178,8.3,11.0,73,0.00,,---,0.00,VWS V14.01,2013-01-11 09:14:00,
2013-01-11 03:15:00,62.4,53.7,29.24,SSE,153,10.5,10.5,73,0.00,,---,0.00,VWS V14.01,2013-01-11 09:15:00,
2013-01-11 03:16:00,62.6,53.8,29.23,SSE,153,10.5,10.5,73,0.00,,---,0.00,VWS V14.01,2013-01-11 09:16:00,
2013-01-11 03:17:00,62.6,53.8,29.21,SE,135,5.8,10.5,73,0.00,,---,0.00,VWS V14.01,2013-01-11 09:17:00,
2013-01-11 03:18:00,62.6,53.8,29.20,SSE,155,5.8,10.5,73,0.00,,---,0.00,VWS V14.01,2013-01-11 09:18:00,
2013-01-11 03:19:00,62.6,53.8,29.20,SE,141,7.6,7.6,73,0.00,,---,0.00,VWS V14.01,2013-01-11 09:19:00,
2013-01-11 03:20:00,62.6,53.8,29.20,SE,141,7.6,7.6,73,0.00,,---,0.00,VWS V14.01,2013-01-11 09:20:00,
2013-01-11 03:21:00,62.6,53.8,29.21,SSE,165,10.5,10.5,73,0.00,,---,0.00,VWS V14.01,2013-01-11 09:21:00,
2013-01-11 03:22:00,62.6,53.8,29.21,SSE,153,7.6,10.5,73,0.00,,---,0.00,VWS V14.01,2013-01-11 09:22:00,
2013-01-11 03:23:00,62.6,53.8,29.21,SSE,147,5.8,10.5,73,0.00,,---,0.00,VWS V14.01,2013-01-11 09:23:00,
2013-01-11 03:24:00,62.6,53.8,29.20,SE,142,7.2,7.2,73,0.00,,---,0.00,VWS V14.01,2013-01-11 09:24:00,
2013-01-11 03:25:00,62.6,53.8,29.20,SSE,163,5.4,7.2,73,0.00,,---,0.00,VWS V14.01,2013-01-11 09:25:00,
2013-01-11 03:26:00,62.6,53.8,29.21,SSE,163,5.4,5.4,73,0.00,,---,0.00,VWS V14.01,2013-01-11 09:26:00,
2013-01-11 03:27:00,62.6,53.8,29.21,SSE,158,5.4,5.4,73,0.00,,---,0.00,VWS V14.01,2013-01-11 09:27:00,
2013-01-11 03:28:00,62.6,53.8,29.21,SSE,160,10.5,10.5,73,0.00,,---,0.00,VWS V14.01,2013-01-11 09:28:00,
2013-01-11 03:29:00,62.6,53.8,29.20,SSE,167,8.7,10.5,73,0.00,,---,0.00,VWS V14.01,2013-01-11 09:29:00,
2013-01-11 03:30:00,62.6,53.8,29.20,SSE,148,6.3,8.7,73,0.00,,---,0.00,VWS V14.01,2013-01-11 09:30:00,
2013-01-11 03:31:00,62.6,53.8,29.21,SE,125,7.6,11.9,73,0.00,,---,0.00,VWS V14.01,2013-01-11 09:31:00,
2013-01-11 03:32:00,62.6,53.8,29.21,SE,125,7.6,7.6,73,0.00,,---,0.00,VWS V14.01,2013-01-11 09:32:00,
2013-01-11 03:33:00,62.6,53.8,29.21,South,178,8.3,8.3,73,0.00,,---,0.00,VWS V14.01,2013-01-11 09:33:00,
2013-01-11 03:34:00,62.6,53.8,29.20,South,176,11.0,13.2,73,0.00,,---,0.00,VWS V14.01,2013-01-11 09:34:00,
2013-01-11 03:35:00,62.6,53.8,29.20,SSW,192,8.7,11.0,73,0.00,,---,0.00,VWS V14.01,2013-01-11 09:35:00,
2013-01-11 03:36:00,62.6,53.8,29.21,SSE,150,7.6,8.7,73,0.00,,---,0.00,VWS V14.01,2013-01-11 09:36:00,
2013-01-11 03:37:00,62.8,54.0,29.21,SSE,168,5.8,10.5,73,0.00,,---,0.00,VWS V14.01,2013-01-11 09:37:00,
2013-01-11 03:38:00,62.8,54.0,29.21,SSE,168,5.8,10.5,73,0.00,,---,0.00,VWS V14.01,2013-01-11 09:38:00,
2013-01-11 03:39:00,62.8,54.0,29.20,SSE,168,5.8,5.8,73,0.00,,---,0.00,VWS V14.01,2013-01-11 09:39:00,
2013-01-11 03:40:00,62.8,54.0,29.20,SSE,168,5.8,5.8,73,0.00,,---,0.00,VWS V14.01,2013-01-11 09:40:00,
2013-01-11 03:41:00,62.8,54.0,29.21,South,183,8.7,8.7,73,0.00,,---,0.00,VWS V14.01,2013-01-11 09:41:00,
2013-01-11 03:42:00,62.8,54.0,29.21,South,183,8.7,8.7,73,0.00,,---,0.00,VWS V14.01,2013-01-11 09:42:00,
2013-01-11 03:43:00,62.8,54.0,29.21,South,183,8.7,8.7,73,0.00,,---,0.00,VWS V14.01,2013-01-11 09:43:00,
2013-01-11 03:44:00,62.8,54.0,29.20,SSE,155,11.0,11.0,73,0.00,,---,0.00,VWS V14.01,2013-01-11 09:44:00,
2013-01-11 03:45:00,62.8,54.0,29.20,SE,145,5.4,11.0,73,0.00,,---,0.00,VWS V14.01,2013-01-11 09:45:00,
2013-01-11 03:46:00,62.8,54.0,29.21,South,180,7.6,7.6,73,0.00,,---,0.00,VWS V14.01,2013-01-11 09:46:00,
2013-01-11 03:47:00,62.8,53.6,29.21,South,183,7.6,7.6,72,0.00,,---,0.00,VWS V14.01,2013-01-11 09:47:00,
2013-01-11 03:48:00,62.8,53.6,29.21,WNW,288,5.8,7.6,72,0.00,,---,0.00,VWS V14.01,2013-01-11 09:48:00,
2013-01-11 03:49:00,62.8,53.6,29.20,WNW,288,5.8,5.8,72,0.00,,---,0.00,VWS V14.01,2013-01-11 09:49:00,
2013-01-11 03:50:00,62.8,53.6,29.20,WNW,294,8.7,8.7,72,0.00,,---,0.00,VWS V14.01,2013-01-11 09:50:00,
2013-01-11 03:51:00,62.8,53.6,29.21,SSE,153,7.6,7.6,72,0.00,,---,0.00,VWS V14.01,2013-01-11 09:51:00,
2013-01-11 03:52:00,62.8,53.6,29.21,SSE,160,6.3,6.3,72,0.00,,---,0.00,VWS V14.01,2013-01-11 09:52:00,
2013-01-11 03:53:00,62.8,53.6,29.21,SE,139,10.1,10.1,72,0.00,,---,0.00,VWS V14.01,2013-01-11 09:53:00,
2013-01-11 03:54:00,63.0,54.2,29.20,South,170,8.7,10.1,73,0.00,,---,0.00,VWS V14.01,2013-01-11 09:54:00,
2013-01-11 03:55:00,63.0,54.2,29.20,South,171,6.3,8.7,73,0.00,,---,0.00,VWS V14.01,2013-01-11 09:55:00,
2013-01-11 03:56:00,63.0,54.2,29.21,SSE,158,8.1,8.3,73,0.00,,---,0.00,VWS V14.01,2013-01-11 09:56:00,
2013-01-11 03:57:00,63.0,54.2,29.21,SSE,158,8.1,8.1,73,0.00,,---,0.00,VWS V14.01,2013-01-11 09:57:00,
2013-01-11 03:58:00,63.0,54.2,29.21,SSE,158,8.1,8.1,73,0.00,,---,0.00,VWS V14.01,2013-01-11 09:58:00,
2013-01-11 03:59:00,63.0,54.2,29.20,SSW,198,7.6,8.1,73,0.00,,---,0.00,VWS V14.01,2013-01-11 09:59:00,
2013-01-11 04:00:00,63.0,54.2,29.20,South,172,4.0,7.6,73,0.00,,---,0.00,VWS V14.01,2013-01-11 10:00:00,
2013-01-11 04:01:00,63.0,53.8,29.21,SE,136,8.1,8.1,72,0.00,,---,0.00,VWS V14.01,2013-01-11 10:01:00,
2013-01-11 04:02:00,63.0,53.8,29.20,SE,136,8.1,8.1,72,0.00,,---,0.00,VWS V14.01,2013-01-11 10:02:00,
2013-01-11 04:03:00,63.0,53.8,29.21,SSE,165,8.1,8.1,72,0.00,,---,0.00,VWS V14.01,2013-01-11 10:03:00,
2013-01-11 04:04:00,63.0,53.8,29.20,SSE,165,8.1,8.1,72,0.00,,---,0.00,VWS V14.01,2013-01-11 10:04:00,
2013-01-11 04:05:00,63.0,53.8,29.20,SSE,165,8.1,8.1,72,0.00,,---,0.00,VWS V14.01,2013-01-11 10:05:00,
2013-01-11 04:06:00,63.0,54.2,29.21,SSE,162,8.7,8.7,73,0.00,,---,0.00,VWS V14.01,2013-01-11 10:06:00,
2013-01-11 04:07:00,63.0,54.2,29.20,SSE,162,8.7,8.7,73,0.00,,---,0.00,VWS V14.01,2013-01-11 10:07:00,
2013-01-11 04:08:00,63.0,54.2,29.21,SSW,207,8.3,8.7,73,0.00,,---,0.00,VWS V14.01,2013-01-11 10:08:00,
2013-01-11 04:09:00,63.0,54.2,29.20,South,183,10.5,10.5,73,0.00,,---,0.00,VWS V14.01,2013-01-11 10:09:00,
2013-01-11 04:10:00,63.0,53.8,29.20,South,183,5.4,10.5,72,0.00,,---,0.00,VWS V14.01,2013-01-11 10:10:00,
2013-01-11 04:11:00,63.0,53.8,29.20,South,173,8.3,9.2,72,0.00,,---,0.00,VWS V14.01,2013-01-11 10:11:00,
2013-01-11 04:12:00,63.0,53.8,29.21,SSE,162,8.1,8.1,72,0.00,,---,0.00,VWS V14.01,2013-01-11 10:12:00,
2013-01-11 04:13:00,63.0,53.8,29.21,SSE,166,5.4,8.1,72,0.00,,---,0.00,VWS V14.01,2013-01-11 10:13:00,
2013-01-11 04:14:00,63.0,53.8,29.21,SSE,152,7.6,7.6,72,0.00,,---,0.00,VWS V14.01,2013-01-11 10:14:00,
2013-01-11 04:15:00,63.0,53.8,29.20,SSE,167,7.2,7.6,72,0.00,,---,0.00,VWS V14.01,2013-01-11 10:15:00,
2013-01-11 04:16:00,63.0,53.8,29.20,SE,131,9.6,9.6,72,0.00,,---,0.00,VWS V14.01,2013-01-11 10:16:00,
2013-01-11 04:17:00,63.0,53.8,29.21,SSE,164,7.2,7.2,72,0.00,,---,0.00,VWS V14.01,2013-01-11 10:17:00,
2013-01-11 04:18:00,63.0,53.8,29.21,SW,216,8.7,8.7,72,0.00,,---,0.00,VWS V14.01,2013-01-11 10:18:00,
2013-01-11 04:19:00,63.0,53.8,29.21,SW,216,8.7,8.7,72,0.00,,---,0.00,VWS V14.01,2013-01-11 10:19:00,
2013-01-11 04:20:00,63.0,53.8,29.20,SW,216,8.7,8.7,72,0.00,,---,0.00,VWS V14.01,2013-01-11 10:20:00,
2013-01-11 04:21:00,63.0,53.8,29.20,SSE,168,6.3,8.7,72,0.00,,---,0.00,VWS V14.01,2013-01-11 10:21:00,
2013-01-11 04:22:00,63.0,53.8,29.21,South,183,8.3,8.3,72,0.00,,---,0.00,VWS V14.01,2013-01-11 10:22:00,
2013-01-11 04:23:00,63.0,53.8,29.21,SSE,164,7.6,8.3,72,0.00,,---,0.00,VWS V14.01,2013-01-11 10:23:00,
2013-01-11 04:24:00,63.0,53.8,29.21,SE,124,5.8,5.8,72,0.00,,---,0.00,VWS V14.01,2013-01-11 10:24:00,
2013-01-11 04:26:00,63.0,53.8,29.20,South,179,7.6,8.3,72,0.00,,---,0.00,VWS V14.01,2013-01-11 10:26:00,
2013-01-11 04:27:00,63.0,53.8,29.21,SSE,149,6.3,8.3,72,0.00,,---,0.00,VWS V14.01,2013-01-11 10:27:00,
2013-01-11 04:28:00,63.0,54.2,29.21,South,176,5.8,8.3,73,0.00,,---,0.00,VWS V14.01,2013-01-11 10:28:00,
2013-01-11 04:29:00,63.0,54.2,29.21,South,175,8.3,8.3,73,0.00,,---,0.00,VWS V14.01,2013-01-11 10:29:00,
2013-01-11 04:30:00,63.0,54.2,29.20,South,175,8.3,8.3,73,0.00,,---,0.00,VWS V14.01,2013-01-11 10:30:00,
2013-01-11 04:31:00,63.0,54.2,29.20,South,175,8.3,8.3,73,0.00,,---,0.00,VWS V14.01,2013-01-11 10:31:00,
2013-01-11 04:32:00,63.0,54.2,29.21,South,175,8.3,8.3,73,0.00,,---,0.00,VWS V14.01,2013-01-11 10:32:00,
2013-01-11 04:33:00,63.0,54.2,29.21,South,175,8.3,8.3,73,0.00,,---,0.00,VWS V14.01,2013-01-11 10:33:00,
2013-01-11 04:34:00,63.0,54.2,29.21,South,190,5.4,5.4,73,0.00,,---,0.00,VWS V14.01,2013-01-11 10:34:00,
2013-01-11 04:35:00,63.0,54.2,29.20,SSE,160,6.3,6.3,73,0.00,,---,0.00,VWS V14.01,2013-01-11 10:35:00,
2013-01-11 04:36:00,63.0,54.2,29.20,SSE,160,6.3,6.3,73,0.00,,---,0.00,VWS V14.01,2013-01-11 10:36:00,
2013-01-11 04:37:00,63.0,54.2,29.20,SSE,166,7.6,7.6,73,0.00,,---,0.00,VWS V14.01,2013-01-11 10:37:00,
2013-01-11 04:38:00,63.0,54.2,29.21,South,172,8.7,8.7,73,0.00,,---,0.00,VWS V14.01,2013-01-11 10:38:00,
2013-01-11 04:39:00,63.0,54.2,29.21,SSE,155,9.2,9.2,73,0.00,,---,0.00,VWS V14.01,2013-01-11 10:39:00,
2013-01-11 04:40:00,63.0,54.2,29.20,SSE,155,9.2,9.2,73,0.00,,---,0.00,VWS V14.01,2013-01-11 10:40:00,
2013-01-11 04:41:00,63.0,54.2,29.20,South,178,8.1,9.2,73,0.00,,---,0.00,VWS V14.01,2013-01-11 10:41:00,
2013-01-11 04:42:00,63.0,54.2,29.20,South,189,8.1,8.1,73,0.00,,---,0.00,VWS V14.01,2013-01-11 10:42:00,
2013-01-11 04:43:00,63.0,54.2,29.21,South,172,7.6,8.1,73,0.00,,---,0.00,VWS V14.01,2013-01-11 10:43:00,
2013-01-11 04:44:00,63.0,54.2,29.21,SSE,153,8.3,8.3,73,0.00,,---,0.00,VWS V14.01,2013-01-11 10:44:00,
2013-01-11 04:45:00,63.0,54.2,29.20,West,275,7.6,8.3,73,0.00,,---,0.00,VWS V14.01,2013-01-11 10:45:00,
2013-01-11 04:46:00,63.0,54.2,29.20,West,275,7.6,7.6,73,0.00,,---,0.00,VWS V14.01,2013-01-11 10:46:00,
2013-01-11 04:47:00,63.0,54.2,29.20,ESE,122,6.3,7.6,73,0.00,,---,0.00,VWS V14.01,2013-01-11 10:47:00,
2013-01-11 04:48:00,63.0,54.2,29.21,ESE,122,6.3,6.3,73,0.00,,---,0.00,VWS V14.01,2013-01-11 10:48:00,
2013-01-11 04:49:00,63.0,54.2,29.21,ESE,122,6.3,6.3,73,0.00,,---,0.00,VWS V14.01,2013-01-11 10:49:00,
2013-01-11 04:50:00,63.0,54.2,29.21,South,191,11.9,11.9,73,0.00,,---,0.00,VWS V14.01,2013-01-11 10:50:00,
2013-01-11 04:51:00,63.0,54.2,29.20,South,191,11.9,11.9,73,0.00,,---,0.00,VWS V14.01,2013-01-11 10:51:00,
2013-01-11 04:52:00,63.0,54.2,29.20,SSE,155,8.1,11.9,73,0.00,,---,0.00,VWS V14.01,2013-01-11 10:52:00,
2013-01-11 04:53:00,63.0,54.2,29.21,SE,143,6.3,6.3,73,0.00,,---,0.00,VWS V14.01,2013-01-11 10:53:00,
2013-01-11 04:54:00,63.0,54.2,29.21,South,179,7.6,8.7,73,0.00,,---,0.00,VWS V14.01,2013-01-11 10:54:00,
2013-01-11 04:55:00,63.0,54.2,29.21,SSE,156,8.3,8.3,73,0.00,,---,0.00,VWS V14.01,2013-01-11 10:55:00,
2013-01-11 04:56:00,63.0,54.2,29.20,SSE,156,8.3,8.3,73,0.00,,---,0.00,VWS V14.01,2013-01-11 10:56:00,
2013-01-11 04:57:00,63.0,54.2,29.20,SSE,156,8.3,8.3,73,0.00,,---,0.00,VWS V14.01,2013-01-11 10:57:00,
2013-01-11 04:58:00,63.0,54.2,29.21,South,175,4.9,4.9,73,0.00,,---,0.00,VWS V14.01,2013-01-11 10:58:00,
2013-01-11 04:59:00,63.0,54.2,29.21,South,175,4.9,4.9,73,0.00,,---,0.00,VWS V14.01,2013-01-11 10:59:00,
2013-01-11 05:00:00,63.0,54.2,29.21,SSE,166,5.4,5.4,73,0.00,,---,0.00,VWS V14.01,2013-01-11 11:00:00,
2013-01-11 05:01:00,63.0,54.2,29.20,South,178,7.2,7.2,73,0.00,,---,0.00,VWS V14.01,2013-01-11 11:01:00,
2013-01-11 05:02:00,63.0,54.2,29.20,South,180,10.1,10.1,73,0.00,,---,0.00,VWS V14.01,2013-01-11 11:02:00,
2013-01-11 05:03:00,63.0,54.2,29.21,South,180,10.1,10.1,73,0.00,,---,0.00,VWS V14.01,2013-01-11 11:03:00,
2013-01-11 05:04:00,63.0,54.2,29.21,SSE,159,12.3,12.3,73,0.00,,---,0.00,VWS V14.01,2013-01-11 11:04:00,
2013-01-11 05:05:00,63.0,54.2,29.20,SE,139,7.6,12.3,73,0.00,,---,0.00,VWS V14.01,2013-01-11 11:05:00,
2013-01-11 05:06:00,63.0,54.2,29.21,SE,139,7.6,7.6,73,0.00,,---,0.00,VWS V14.01,2013-01-11 11:06:00,
2013-01-11 05:07:00,63.0,54.2,29.20,SSE,148,6.3,7.6,73,0.00,,---,0.00,VWS V14.01,2013-01-11 11:07:00,
2013-01-11 05:08:00,63.0,54.2,29.21,SSE,164,10.5,10.5,73,0.00,,---,0.00,VWS V14.01,2013-01-11 11:08:00,
2013-01-11 05:09:00,63.0,54.2,29.21,SE,131,6.3,10.5,73,0.00,,---,0.00,VWS V14.01,2013-01-11 11:09:00,
2013-01-11 05:10:00,63.0,54.2,29.20,SSE,152,8.1,10.5,73,0.00,,---,0.00,VWS V14.01,2013-01-11 11:10:00,
2013-01-11 05:11:00,63.0,54.2,29.21,South,172,12.3,12.3,73,0.00,,---,0.00,VWS V14.01,2013-01-11 11:11:00,
2013-01-11 05:12:00,63.0,54.2,29.20,SSE,162,6.3,12.3,73,0.00,,---,0.00,VWS V14.01,2013-01-11 11:12:00,
2013-01-11 05:13:00,63.0,54.2,29.20,South,171,6.3,6.3,73,0.00,,---,0.00,VWS V14.01,2013-01-11 11:13:00,
2013-01-11 05:14:00,63.0,54.2,29.21,SE,134,6.3,6.3,73,0.00,,---,0.00,VWS V14.01,2013-01-11 11:14:00,
2013-01-11 05:15:00,63.0,54.2,29.21,SE,134,6.3,6.3,73,0.00,,---,0.00,VWS V14.01,2013-01-11 11:15:00,
2013-01-11 05:16:00,63.1,54.3,29.21,SSE,168,4.0,8.7,73,0.00,,---,0.00,VWS V14.01,2013-01-11 11:16:00,
2013-01-11 05:17:00,63.1,54.3,29.20,SSE,168,4.0,4.0,73,0.00,,---,0.00,VWS V14.01,2013-01-11 11:17:00,
2013-01-11 05:18:00,63.1,54.3,29.20,South,170,4.0,5.4,73,0.00,,---,0.00,VWS V14.01,2013-01-11 11:18:00,
2013-01-11 05:19:00,63.1,54.3,29.21,SE,144,5.8,5.8,73,0.00,,---,0.00,VWS V14.01,2013-01-11 11:19:00,
2013-01-11 05:20:00,63.1,54.3,29.21,SE,144,5.8,5.8,73,0.00,,---,0.00,VWS V14.01,2013-01-11 11:20:00,
2013-01-11 05:21:00,63.0,54.2,29.21,SSE,154,8.3,8.7,73,0.00,,---,0.00,VWS V14.01,2013-01-11 11:21:00,
2013-01-11 05:22:00,63.0,54.2,29.20,West,263,8.1,8.7,73,0.00,,---,0.00,VWS V14.01,2013-01-11 11:22:00,
2013-01-11 05:23:00,63.0,54.5,29.20,SSW,204,5.8,8.1,74,0.00,,---,0.00,VWS V14.01,2013-01-11 11:23:00,
2013-01-11 05:24:00,63.0,54.5,29.21,SSE,157,8.7,8.7,74,0.00,,---,0.00,VWS V14.01,2013-01-11 11:24:00,
2013-01-11 05:25:00,63.0,54.5,29.21,SSE,168,6.3,6.3,74,0.00,,---,0.00,VWS V14.01,2013-01-11 11:25:00,
2013-01-11 05:26:00,63.0,54.5,29.21,SSE,147,5.4,6.3,74,0.00,,---,0.00,VWS V14.01,2013-01-11 11:26:00,
2013-01-11 05:27:00,63.0,54.5,29.20,SSE,147,5.4,6.3,74,0.00,,---,0.00,VWS V14.01,2013-01-11 11:27:00,
2013-01-11 05:28:00,63.0,54.5,29.20,SSE,154,5.4,5.4,74,0.00,,---,0.00,VWS V14.01,2013-01-11 11:28:00,
2013-01-11 05:29:00,63.0,54.5,29.21,South,183,5.4,5.4,74,0.00,,---,0.00,VWS V14.01,2013-01-11 11:29:00,
2013-01-11 05:30:00,63.0,54.5,29.21,ENE,66,5.4,5.4,74,0.00,,---,0.00,VWS V14.01,2013-01-11 11:30:00,
2013-01-11 05:31:00,63.0,54.5,29.21,ENE,66,5.4,5.4,74,0.00,,---,0.00,VWS V14.01,2013-01-11 11:31:00,
2013-01-11 05:32:00,63.0,54.5,29.20,South,177,4.5,5.4,74,0.00,,---,0.00,VWS V14.01,2013-01-11 11:32:00,
2013-01-11 05:33:00,63.0,54.5,29.20,SSE,157,2.7,4.5,74,0.00,,---,0.00,VWS V14.01,2013-01-11 11:33:00,
2013-01-11 05:34:00,63.0,54.5,29.21,South,172,5.8,5.8,74,0.00,,---,0.00,VWS V14.01,2013-01-11 11:34:00,
2013-01-11 05:35:00,63.0,54.5,29.21,WSW,258,6.3,6.3,74,0.00,,---,0.00,VWS V14.01,2013-01-11 11:35:00,
2013-01-11 05:36:00,63.0,54.5,29.21,South,179,5.4,5.4,74,0.00,,---,0.00,VWS V14.01,2013-01-11 11:36:00,
2013-01-11 05:37:00,63.0,54.9,29.20,SE,141,6.3,6.3,75,0.00,,---,0.00,VWS V14.01,2013-01-11 11:37:00,
2013-01-11 05:38:00,63.0,54.9,29.20,SSE,152,5.4,6.3,75,0.00,,---,0.00,VWS V14.01,2013-01-11 11:38:00,
2013-01-11 05:39:00,63.0,54.9,29.20,SSW,197,6.3,6.3,75,0.00,,---,0.00,VWS V14.01,2013-01-11 11:39:00,
2013-01-11 05:40:00,63.0,54.9,29.21,SE,143,4.0,6.3,75,0.00,,---,0.00,VWS V14.01,2013-01-11 11:40:00,
2013-01-11 05:49:00,63.0,54.9,29.21,West,263,0.0,0.0,75,0.00,,---,0.00,VWS V14.01,2013-01-11 11:49:00,
2013-01-11 05:54:00,63.0,54.5,29.21,SE,143,4.0,5.4,74,0.00,,---,0.00,VWS V14.01,2013-01-11 11:54:00,
2013-01-11 05:59:00,63.0,54.5,29.21,South,170,7.6,7.6,74,0.00,,---,0.00,VWS V14.01,2013-01-11 11:59:00,
2013-01-11 06:00:00,63.0,54.2,29.21,SSE,151,8.7,8.7,73,0.00,,---,0.00,VWS V14.01,2013-01-11 12:00:00,
2013-01-11 06:04:00,63.1,54.3,29.21,SSE,153,5.4,6.7,73,0.00,,---,0.00,VWS V14.01,2013-01-11 12:04:00,
2013-01-11 06:05:00,63.1,54.3,29.21,South,176,3.6,6.7,73,0.00,,---,0.00,VWS V14.01,2013-01-11 12:05:00,
2013-01-11 06:09:00,63.1,54.0,29.21,SSE,147,6.3,6.3,72,0.00,,---,0.00,VWS V14.01,2013-01-11 12:09:00,
2013-01-11 06:10:00,63.1,54.0,29.21,SSW,209,7.6,7.6,72,0.00,,---,0.00,VWS V14.01,2013-01-11 12:10:00,
2013-01-11 06:14:00,63.3,54.2,29.21,SE,144,6.3,7.6,72,0.00,,---,0.00,VWS V14.01,2013-01-11 12:14:00,
2013-01-11 06:15:00,63.5,53.9,29.21,South,182,8.3,8.3,71,0.00,,---,0.00,VWS V14.01,2013-01-11 12:15:00,
2013-01-11 06:19:00,63.5,53.9,29.21,SSE,168,5.4,5.8,71,0.00,,---,0.00,VWS V14.01,2013-01-11 12:19:00,
2013-01-11 06:20:00,63.5,53.9,29.21,SSE,154,5.4,8.1,71,0.00,,---,0.00,VWS V14.01,2013-01-11 12:20:00,
2013-01-11 06:24:00,63.5,53.9,29.21,SSE,159,8.7,10.5,71,0.00,,---,0.00,VWS V14.01,2013-01-11 12:24:00,
2013-01-11 06:25:00,63.5,53.9,29.21,SSE,150,7.6,10.5,71,0.00,,---,0.00,VWS V14.01,2013-01-11 12:25:00,
2013-01-11 06:26:00,63.3,53.8,29.21,SSE,164,6.3,8.1,71,0.00,,---,0.00,VWS V14.01,2013-01-11 12:26:00,
2013-01-11 06:30:00,63.5,54.3,29.21,NNE,19,12.3,14.5,72,0.00,,---,0.00,VWS V14.01,2013-01-11 12:30:00,
2013-01-11 06:31:00,63.5,54.3,29.21,South,177,13.2,13.2,72,0.00,,---,0.00,VWS V14.01,2013-01-11 12:31:00,
2013-01-11 06:35:00,63.5,54.3,29.21,SSE,167,11.4,15.4,72,0.00,,---,0.00,VWS V14.01,2013-01-11 12:35:00,
2013-01-11 06:36:00,63.5,54.3,29.21,SSE,167,6.3,12.8,72,0.00,,---,0.00,VWS V14.01,2013-01-11 12:36:00,
2013-01-11 06:40:00,63.5,54.3,29.21,South,169,5.4,10.5,72,0.00,,---,0.00,VWS V14.01,2013-01-11 12:40:00,
2013-01-11 06:41:00,63.5,54.3,29.21,South,172,8.7,8.7,72,0.00,,---,0.00,VWS V14.01,2013-01-11 12:41:00,
2013-01-11 06:45:00,63.3,54.5,29.21,SE,146,6.3,6.3,73,0.00,,---,0.00,VWS V14.01,2013-01-11 12:45:00,
2013-01-11 06:46:00,63.3,54.5,29.21,SSE,166,5.8,5.8,73,0.00,,---,0.00,VWS V14.01,2013-01-11 12:46:00,
2013-01-11 06:50:00,63.1,54.7,29.21,SE,140,5.8,7.2,74,0.00,,---,0.00,VWS V14.01,2013-01-11 12:50:00,
2013-01-11 06:51:00,63.1,54.7,29.21,SSE,155,5.4,8.1,74,0.00,,---,0.00,VWS V14.01,2013-01-11 12:51:00,
2013-01-11 06:55:00,63.1,55.1,29.23,SSE,166,3.6,3.6,75,0.00,,---,0.00,VWS V14.01,2013-01-11 12:55:00,
2013-01-11 06:57:00,63.1,55.1,29.23,SSE,148,5.4,5.4,75,0.00,,---,0.00,VWS V14.01,2013-01-11 12:57:00,
2013-01-11 07:00:00,63.1,55.1,29.23,SSE,164,5.4,5.4,75,0.00,,---,0.00,VWS V14.01,2013-01-11 13:00:00,
2013-01-11 07:01:00,63.1,55.1,29.23,SSE,164,5.4,5.4,75,0.00,,---,0.00,VWS V14.01,2013-01-11 13:01:00,
2013-01-11 07:02:00,63.1,55.1,29.23,SSE,166,3.6,5.4,75,0.00,,---,0.00,VWS V14.01,2013-01-11 13:02:00,
2013-01-11 07:05:00,62.8,56.2,29.23,SSE,168,4.0,5.4,79,0.00,,---,0.00,VWS V14.01,2013-01-11 13:05:00,
2013-01-11 07:06:00,62.8,56.2,29.23,SSW,193,4.0,4.0,79,0.00,,---,0.00,VWS V14.01,2013-01-11 13:06:00,
2013-01-11 07:07:00,62.6,56.3,29.23,SSW,193,4.0,4.0,80,0.00,,---,0.00,VWS V14.01,2013-01-11 13:07:00,
2013-01-11 07:10:00,62.6,56.7,29.23,South,180,6.3,6.3,81,0.00,,---,0.00,VWS V14.01,2013-01-11 13:10:00,
2013-01-11 07:11:00,62.6,56.7,29.23,South,182,6.3,6.3,81,0.00,,---,0.00,VWS V14.01,2013-01-11 13:11:00,
2013-01-11 07:12:00,62.6,57.0,29.23,South,182,6.3,6.3,82,0.00,,---,0.00,VWS V14.01,2013-01-11 13:12:00,
2013-01-11 07:15:00,62.6,57.0,29.23,South,190,8.3,8.3,82,0.00,,---,0.00,VWS V14.01,2013-01-11 13:15:00,
2013-01-11 07:16:00,62.6,57.0,29.23,South,190,8.3,8.3,82,0.00,,---,0.00,VWS V14.01,2013-01-11 13:16:00,
2013-01-11 07:17:00,62.6,57.0,29.23,SSE,163,4.9,6.3,82,0.00,,---,0.00,VWS V14.01,2013-01-11 13:17:00,
2013-01-11 07:20:00,62.6,57.4,29.23,South,175,5.4,5.4,83,0.00,,---,0.00,VWS V14.01,2013-01-11 13:20:00,
2013-01-11 07:22:00,62.6,57.4,29.23,South,175,5.4,5.4,83,0.00,,---,0.00,VWS V14.01,2013-01-11 13:22:00,
2013-01-11 07:25:00,62.4,57.5,29.23,South,171,5.4,5.4,84,0.00,,---,0.00,VWS V14.01,2013-01-11 13:25:00,
2013-01-11 07:26:00,62.4,57.5,29.23,SSW,193,4.0,5.4,84,0.00,,---,0.00,VWS V14.01,2013-01-11 13:26:00,
2013-01-11 07:27:00,62.4,57.5,29.23,SSE,166,6.3,6.3,84,0.00,,---,0.00,VWS V14.01,2013-01-11 13:27:00,
2013-01-11 07:31:00,62.2,57.7,29.23,South,171,7.6,7.6,85,0.00,,---,0.00,VWS V14.01,2013-01-11 13:31:00,
2013-01-11 07:32:00,62.2,57.7,29.23,South,171,7.6,7.6,85,0.00,,---,0.00,VWS V14.01,2013-01-11 13:32:00,
2013-01-11 07:33:00,62.2,57.7,29.23,South,171,7.6,7.6,85,0.00,,---,0.00,VWS V14.01,2013-01-11 13:33:00,
2013-01-11 07:36:00,62.2,57.7,29.23,South,169,3.6,3.6,85,0.00,,---,0.00,VWS V14.01,2013-01-11 13:36:00,
2013-01-11 07:37:00,62.2,57.7,29.23,SSE,166,4.0,4.0,85,0.00,,---,0.00,VWS V14.01,2013-01-11 13:37:00,
2013-01-11 07:38:00,62.2,58.0,29.23,South,186,5.8,5.8,86,0.00,,---,0.00,VWS V14.01,2013-01-11 13:38:00,
2013-01-11 07:41:00,62.2,58.0,29.23,South,173,6.3,6.3,86,0.00,,---,0.00,VWS V14.01,2013-01-11 13:41:00,
2013-01-11 07:42:00,62.2,58.0,29.23,South,181,4.9,6.3,86,0.00,,---,0.00,VWS V14.01,2013-01-11 13:42:00,
2013-01-11 07:43:00,62.2,58.0,29.23,SSE,160,5.8,5.8,86,0.00,,---,0.00,VWS V14.01,2013-01-11 13:43:00,
2013-01-11 07:46:00,62.1,58.2,29.23,SE,143,5.4,5.4,87,0.00,,---,0.00,VWS V14.01,2013-01-11 13:46:00,
2013-01-11 07:47:00,62.1,58.2,29.23,SE,143,5.4,5.4,87,0.00,,---,0.00,VWS V14.01,2013-01-11 13:47:00,
2013-01-11 07:48:00,62.1,58.2,29.23,SSE,158,4.0,4.0,87,0.00,,---,0.00,VWS V14.01,2013-01-11 13:48:00,
2013-01-11 07:51:00,62.1,58.2,29.23,SSE,158,4.0,4.0,87,0.00,,---,0.00,VWS V14.01,2013-01-11 13:51:00,
2013-01-11 07:52:00,62.1,58.2,29.23,South,173,4.0,4.0,87,0.00,,---,0.00,VWS V14.01,2013-01-11 13:52:00,
2013-01-11 07:53:00,62.1,58.2,29.23,South,169,3.1,3.1,87,0.00,,---,0.00,VWS V14.01,2013-01-11 13:53:00,
2013-01-11 07:56:00,62.1,58.5,29.23,South,170,5.4,5.4,88,0.00,,---,0.00,VWS V14.01,2013-01-11 13:56:00,
2013-01-11 07:57:00,62.1,58.5,29.23,South,170,5.4,5.4,88,0.00,,---,0.00,VWS V14.01,2013-01-11 13:57:00,
2013-01-11 07:58:00,62.1,58.5,29.23,South,170,5.4,5.4,88,0.00,,---,0.00,VWS V14.01,2013-01-11 13:58:00,
2013-01-11 08:01:00,62.2,58.7,29.23,South,170,5.4,5.4,88,0.00,,---,0.00,VWS V14.01,2013-01-11 14:01:00,
2013-01-11 08:02:00,62.2,58.7,29.23,South,178,6.3,6.3,88,0.00,,---,0.00,VWS V14.01,2013-01-11 14:02:00,
2013-01-11 08:03:00,62.2,58.7,29.23,South,178,6.3,6.3,88,0.00,,---,0.00,VWS V14.01,2013-01-11 14:03:00,
2013-01-11 08:06:00,62.2,59.0,29.23,SSE,168,5.4,5.4,89,0.00,,---,0.00,VWS V14.01,2013-01-11 14:06:00,
2013-01-11 08:07:00,62.2,59.0,29.23,SSE,168,5.4,5.4,89,0.00,,---,0.00,VWS V14.01,2013-01-11 14:07:00,
2013-01-11 08:08:00,62.2,59.0,29.23,SSE,168,5.4,5.4,89,0.00,,---,0.00,VWS V14.01,2013-01-11 14:08:00,
2013-01-11 08:11:00,62.2,59.0,29.23,South,181,3.6,3.6,89,0.00,,---,0.00,VWS V14.01,2013-01-11 14:11:00,
2013-01-11 08:12:00,62.2,59.0,29.23,South,181,3.6,3.6,89,0.00,,---,0.00,VWS V14.01,2013-01-11 14:12:00,
2013-01-11 08:14:00,62.2,59.0,29.23,SSE,159,3.6,3.6,89,0.00,,---,0.00,VWS V14.01,2013-01-11 14:14:00,
2013-01-11 08:16:00,62.1,59.1,29.23,SSE,166,5.8,5.8,90,0.00,,---,0.00,VWS V14.01,2013-01-11 14:16:00,
2013-01-11 08:17:00,62.1,59.1,29.23,SSE,166,5.8,5.8,90,0.00,,---,0.00,VWS V14.01,2013-01-11 14:17:00,
2013-01-11 08:19:00,62.1,59.1,29.23,SSE,166,5.8,5.8,90,0.00,,---,0.00,VWS V14.01,2013-01-11 14:19:00,
2013-01-11 08:21:00,62.2,59.3,29.23,SSE,160,8.1,8.1,90,0.00,,---,0.00,VWS V14.01,2013-01-11 14:21:00,
2013-01-11 08:22:00,62.2,59.3,29.23,SSE,160,8.1,8.1,90,0.00,,---,0.00,VWS V14.01,2013-01-11 14:22:00,
2013-01-11 08:24:00,62.2,59.3,29.23,South,175,4.0,4.0,90,0.00,,---,0.00,VWS V14.01,2013-01-11 14:24:00,
2013-01-11 08:26:00,62.2,59.3,29.23,South,175,4.0,4.0,90,0.00,,---,0.00,VWS V14.01,2013-01-11 14:26:00,
2013-01-11 08:27:00,62.2,59.3,29.23,South,175,4.0,4.0,90,0.00,,---,0.00,VWS V14.01,2013-01-11 14:27:00,
2013-01-11 08:28:00,62.2,59.3,29.23,South,175,4.0,4.0,90,0.00,,---,0.00,VWS V14.01,2013-01-11 14:28:00,
2013-01-11 08:29:00,62.2,59.6,29.23,South,175,4.0,4.0,91,0.00,,---,0.00,VWS V14.01,2013-01-11 14:29:00,
2013-01-11 08:31:00,62.2,59.6,29.23,SE,144,3.6,3.6,91,0.00,,---,0.00,VWS V14.01,2013-01-11 14:31:00,
2013-01-11 08:32:00,62.2,59.6,29.23,SE,144,3.6,3.6,91,0.00,,---,0.00,VWS V14.01,2013-01-11 14:32:00,
2013-01-11 08:33:00,62.2,59.6,29.23,SSE,161,4.0,4.0,91,0.00,,---,0.00,VWS V14.01,2013-01-11 14:33:00,
2013-01-11 08:34:00,62.2,59.6,29.23,SSE,161,4.0,4.0,91,0.00,,---,0.00,VWS V14.01,2013-01-11 14:34:00,
2013-01-11 08:36:00,62.2,59.6,29.23,South,186,8.7,8.7,91,0.00,,---,0.00,VWS V14.01,2013-01-11 14:36:00,
2013-01-11 08:37:00,62.2,59.6,29.23,South,186,8.7,8.7,91,0.00,,---,0.00,VWS V14.01,2013-01-11 14:37:00,
2013-01-11 08:38:00,62.2,59.6,29.26,South,186,8.7,8.7,91,0.00,,---,0.00,VWS V14.01,2013-01-11 14:38:00,
2013-01-11 08:39:00,62.2,59.6,29.26,South,186,8.7,8.7,91,0.00,,---,0.00,VWS V14.01,2013-01-11 14:39:00,
2013-01-11 08:41:00,62.2,59.6,29.26,South,186,8.7,8.7,91,0.00,,---,0.00,VWS V14.01,2013-01-11 14:41:00,
2013-01-11 08:42:00,62.2,59.6,29.26,South,186,8.7,8.7,91,0.00,,---,0.00,VWS V14.01,2013-01-11 14:42:00,
2013-01-11 08:43:00,62.2,59.6,29.26,South,186,8.7,8.7,91,0.00,,---,0.00,VWS V14.01,2013-01-11 14:43:00,
2013-01-11 08:44:00,62.2,59.6,29.26,South,185,5.4,5.4,91,0.00,,---,0.00,VWS V14.01,2013-01-11 14:44:00,
2013-01-11 08:47:00,62.2,59.6,29.26,SSE,163,5.8,5.8,91,0.00,,---,0.00,VWS V14.01,2013-01-11 14:47:00,
2013-01-11 08:48:00,62.2,59.9,29.26,SSE,163,5.8,5.8,92,0.00,,---,0.00,VWS V14.01,2013-01-11 14:48:00,
2013-01-11 08:49:00,62.2,59.9,29.26,SSE,163,5.8,5.8,92,0.00,,---,0.00,VWS V14.01,2013-01-11 14:49:00,
2013-01-11 08:52:00,62.2,59.9,29.26,South,173,5.4,5.4,92,0.00,,---,0.00,VWS V14.01,2013-01-11 14:52:00,
2013-01-11 08:53:00,62.2,59.9,29.26,South,173,5.4,5.4,92,0.00,,---,0.00,VWS V14.01,2013-01-11 14:53:00,
2013-01-11 08:54:00,62.2,59.9,29.26,South,173,5.4,5.4,92,0.00,,---,0.00,VWS V14.01,2013-01-11 14:54:00,
2013-01-11 08:57:00,62.2,59.9,29.26,South,173,5.4,5.4,92,0.00,,---,0.00,VWS V14.01,2013-01-11 14:57:00,
2013-01-11 08:58:00,62.2,59.9,29.26,South,181,3.6,3.6,92,0.00,,---,0.00,VWS V14.01,2013-01-11 14:58:00,
2013-01-11 08:59:00,62.2,59.9,29.26,SSE,163,3.1,3.6,92,0.00,,---,0.00,VWS V14.01,2013-01-11 14:59:00,
2013-01-11 09:02:00,62.2,59.9,29.26,SSW,199,4.0,4.0,92,0.00,,---,0.00,VWS V14.01,2013-01-11 15:02:00,
2013-01-11 09:03:00,62.2,59.9,29.26,South,183,4.0,4.0,92,0.00,,---,0.00,VWS V14.01,2013-01-11 15:03:00,
2013-01-11 09:04:00,62.2,59.9,29.26,South,183,4.0,4.0,92,0.00,,---,0.00,VWS V14.01,2013-01-11 15:04:00,
2013-01-11 09:07:00,62.2,59.9,29.26,SSE,156,3.6,3.6,92,0.00,,---,0.00,VWS V14.01,2013-01-11 15:07:00,
2013-01-11 09:08:00,62.2,59.9,29.26,SSE,156,3.6,3.6,92,0.00,,---,0.00,VWS V14.01,2013-01-11 15:08:00,
2013-01-11 09:09:00,62.2,59.9,29.26,SSE,156,3.6,3.6,92,0.00,,---,0.00,VWS V14.01,2013-01-11 15:09:00,
2013-01-11 09:12:00,62.2,59.9,29.26,SSE,165,9.6,9.6,92,0.00,,---,0.00,VWS V14.01,2013-01-11 15:12:00,
2013-01-11 09:13:00,62.2,59.9,29.26,SSW,196,5.8,9.6,92,0.00,,---,0.00,VWS V14.01,2013-01-11 15:13:00,
2013-01-11 09:14:00,62.4,60.1,29.26,SSW,196,5.8,5.8,92,0.00,,---,0.00,VWS V14.01,2013-01-11 15:14:00,
2013-01-11 09:17:00,62.4,60.1,29.26,South,187,5.4,5.4,92,0.00,,---,0.00,VWS V14.01,2013-01-11 15:17:00,
2013-01-11 09:18:00,62.4,60.1,29.26,South,187,5.4,5.4,92,0.00,,---,0.00,VWS V14.01,2013-01-11 15:18:00,
2013-01-11 09:19:00,62.4,60.1,29.26,South,176,4.0,4.0,92,0.00,,---,0.00,VWS V14.01,2013-01-11 15:19:00,
2013-01-11 09:22:00,62.4,60.1,29.26,South,176,4.0,4.0,92,0.00,,---,0.00,VWS V14.01,2013-01-11 15:22:00,
2013-01-11 09:23:00,62.4,60.1,29.26,South,176,4.0,4.0,92,0.00,,---,0.00,VWS V14.01,2013-01-11 15:23:00,
2013-01-11 09:24:00,62.4,60.1,29.26,South,176,4.0,4.0,92,0.00,,---,0.00,VWS V14.01,2013-01-11 15:24:00,
2013-01-11 09:28:00,62.4,60.1,29.26,South,182,4.0,4.0,92,0.00,,---,0.00,VWS V14.01,2013-01-11 15:28:00,
2013-01-11 09:29:00,62.4,60.1,29.26,South,174,3.6,3.6,92,0.00,,---,0.00,VWS V14.01,2013-01-11 15:29:00,
2013-01-11 09:30:00,62.2,59.9,29.26,South,174,3.6,3.6,92,0.00,,---,0.00,VWS V14.01,2013-01-11 15:30:00,
2013-01-11 09:33:00,62.2,59.9,29.26,SSE,162,5.8,5.8,92,0.00,,---,0.00,VWS V14.01,2013-01-11 15:33:00,
2013-01-11 09:34:00,62.2,59.9,29.26,SSE,162,5.8,5.8,92,0.00,,---,0.00,VWS V14.01,2013-01-11 15:34:00,
2013-01-11 09:35:00,62.2,59.9,29.26,SSE,162,5.8,5.8,92,0.00,,---,0.00,VWS V14.01,2013-01-11 15:35:00,
2013-01-11 09:38:00,62.2,59.9,29.26,SSE,161,4.9,4.9,92,0.00,,---,0.00,VWS V14.01,2013-01-11 15:38:00,
2013-01-11 09:39:00,62.2,59.9,29.26,SSE,161,4.9,4.9,92,0.00,,---,0.00,VWS V14.01,2013-01-11 15:39:00,
2013-01-11 09:40:00,62.2,59.9,29.26,South,173,4.9,4.9,92,0.00,,---,0.00,VWS V14.01,2013-01-11 15:40:00,
2013-01-11 09:43:00,62.4,60.1,29.26,South,173,4.9,4.9,92,0.00,,---,0.00,VWS V14.01,2013-01-11 15:43:00,
2013-01-11 09:44:00,62.4,60.1,29.26,South,173,4.9,4.9,92,0.00,,---,0.00,VWS V14.01,2013-01-11 15:44:00,
2013-01-11 09:45:00,62.4,60.1,29.26,South,173,4.9,4.9,92,0.00,,---,0.00,VWS V14.01,2013-01-11 15:45:00,
2013-01-11 09:48:00,62.4,60.1,29.26,SSE,164,4.0,4.0,92,0.00,,---,0.00,VWS V14.01,2013-01-11 15:48:00,
2013-01-11 09:49:00,62.4,60.1,29.26,SSE,164,4.0,4.0,92,0.00,,---,0.00,VWS V14.01,2013-01-11 15:49:00,
2013-01-11 09:50:00,62.4,60.4,29.26,South,179,6.7,6.7,93,0.00,,---,0.00,VWS V14.01,2013-01-11 15:50:00,
2013-01-11 09:53:00,62.4,60.4,29.26,South,171,3.1,3.1,93,0.00,,---,0.00,VWS V14.01,2013-01-11 15:53:00,
2013-01-11 09:54:00,62.4,60.4,29.26,South,170,3.1,3.1,93,0.00,,---,0.00,VWS V14.01,2013-01-11 15:54:00,
2013-01-11 09:55:00,62.4,60.4,29.26,South,170,3.1,3.1,93,0.00,,---,0.00,VWS V14.01,2013-01-11 15:55:00,
2013-01-11 09:56:00,62.4,60.4,29.26,South,170,3.1,3.1,93,0.00,,---,0.00,VWS V14.01,2013-01-11 15:56:00,
2013-01-11 09:58:00,62.4,60.4,29.26,South,170,3.1,3.1,93,0.00,,---,0.00,VWS V14.01,2013-01-11 15:58:00,
2013-01-11 09:59:00,62.4,60.4,29.26,South,170,3.1,3.1,93,0.00,,---,0.00,VWS V14.01,2013-01-11 15:59:00,
2013-01-11 10:00:00,62.4,60.4,29.26,South,170,3.1,3.1,93,0.00,,---,0.00,VWS V14.01,2013-01-11 16:00:00,
2013-01-11 10:01:00,62.4,60.4,29.26,SSE,157,2.2,3.1,93,0.00,,---,0.00,VWS V14.01,2013-01-11 16:01:00,
2013-01-11 10:03:00,62.4,60.4,29.26,South,183,4.0,4.0,93,0.00,,---,0.00,VWS V14.01,2013-01-11 16:03:00,
2013-01-11 10:04:00,62.4,60.4,29.26,South,183,4.0,4.0,93,0.00,,---,0.00,VWS V14.01,2013-01-11 16:04:00,
2013-01-11 10:05:00,62.4,60.4,29.26,South,183,4.0,4.0,93,0.00,,---,0.00,VWS V14.01,2013-01-11 16:05:00,
2013-01-11 10:06:00,62.4,60.4,29.26,South,180,4.9,4.9,93,0.00,,---,0.00,VWS V14.01,2013-01-11 16:06:00,
2013-01-11 10:08:00,62.4,60.4,29.26,South,172,4.0,4.0,93,0.00,,---,0.00,VWS V14.01,2013-01-11 16:08:00,
2013-01-11 10:09:00,62.4,60.4,29.26,South,177,3.1,4.0,93,0.00,,---,0.00,VWS V14.01,2013-01-11 16:09:00,
2013-01-11 10:10:00,62.4,60.4,29.26,South,177,3.1,3.1,93,0.00,,---,0.00,VWS V14.01,2013-01-11 16:10:00,
2013-01-11 10:11:00,62.4,60.4,29.26,South,177,3.1,3.1,93,0.00,,---,0.00,VWS V14.01,2013-01-11 16:11:00,
2013-01-11 10:13:00,62.4,60.4,29.26,South,177,3.1,3.1,93,0.00,,---,0.00,VWS V14.01,2013-01-11 16:13:00,
2013-01-11 10:14:00,62.4,60.4,29.26,South,177,3.1,3.1,93,0.00,,---,0.00,VWS V14.01,2013-01-11 16:14:00,
2013-01-11 10:15:00,62.4,60.4,29.26,South,177,3.1,3.1,93,0.00,,---,0.00,VWS V14.01,2013-01-11 16:15:00,
2013-01-11 10:16:00,62.6,60.2,29.26,South,177,3.1,3.1,92,0.00,,---,0.00,VWS V14.01,2013-01-11 16:16:00,
2013-01-11 10:18:00,62.6,60.5,29.26,South,179,3.1,3.1,93,0.00,,---,0.00,VWS V14.01,2013-01-11 16:18:00,
2013-01-11 10:19:00,62.6,60.2,29.26,SSE,165,3.6,3.6,92,0.00,,---,0.00,VWS V14.01,2013-01-11 16:19:00,
2013-01-11 10:20:00,62.6,60.2,29.26,SSE,165,3.6,3.6,92,0.00,,---,0.00,VWS V14.01,2013-01-11 16:20:00,
2013-01-11 10:21:00,62.6,60.2,29.26,WSW,248,0.0,0.0,92,0.00,,---,0.00,VWS V14.01,2013-01-11 16:21:00,
2013-01-11 10:24:00,62.6,60.5,29.26,SW,227,0.0,0.0,93,0.00,,---,0.00,VWS V14.01,2013-01-11 16:24:00,
2013-01-11 10:25:00,62.6,60.5,29.26,SW,227,0.0,0.0,93,0.00,,---,0.00,VWS V14.01,2013-01-11 16:25:00,
2013-01-11 10:26:00,62.6,60.5,29.26,SW,227,0.0,0.0,93,0.00,,---,0.00,VWS V14.01,2013-01-11 16:26:00,
2013-01-11 10:29:00,62.6,60.5,29.26,South,184,3.6,3.6,93,0.00,,---,0.00,VWS V14.01,2013-01-11 16:29:00,
2013-01-11 10:30:00,62.6,60.5,29.26,South,184,3.6,3.6,93,0.00,,---,0.00,VWS V14.01,2013-01-11 16:30:00,
2013-01-11 10:31:00,62.6,60.5,29.26,South,184,3.6,3.6,93,0.00,,---,0.00,VWS V14.01,2013-01-11 16:31:00,
2013-01-11 10:34:00,62.6,60.5,29.26,South,175,4.0,4.0,93,0.00,,---,0.00,VWS V14.01,2013-01-11 16:34:00,
2013-01-11 10:35:00,62.6,60.5,29.26,South,175,4.0,4.0,93,0.00,,---,0.00,VWS V14.01,2013-01-11 16:35:00,
2013-01-11 10:36:00,62.6,60.5,29.26,South,171,3.6,3.6,93,0.00,,---,0.00,VWS V14.01,2013-01-11 16:36:00,
2013-01-11 10:39:00,62.6,60.5,29.26,South,171,3.6,3.6,93,0.00,,---,0.00,VWS V14.01,2013-01-11 16:39:00,
2013-01-11 10:40:00,62.6,60.5,29.26,South,171,3.6,3.6,93,0.00,,---,0.00,VWS V14.01,2013-01-11 16:40:00,
2013-01-11 10:41:00,62.6,60.5,29.26,South,171,3.6,3.6,93,0.00,,---,0.00,VWS V14.01,2013-01-11 16:41:00,
2013-01-11 10:45:00,62.6,60.5,29.26,South,173,2.7,4.0,93,0.00,,---,0.00,VWS V14.01,2013-01-11 16:45:00,
2013-01-11 10:47:00,62.6,60.5,29.26,SSE,157,5.8,5.8,93,0.00,,---,0.00,VWS V14.01,2013-01-11 16:47:00,
2013-01-11 10:50:00,62.8,60.7,29.26,SSW,199,5.8,5.8,93,0.00,,---,0.00,VWS V14.01,2013-01-11 16:50:00,
2013-01-11 10:52:00,62.8,60.7,29.26,SSW,199,5.8,5.8,93,0.00,,---,0.00,VWS V14.01,2013-01-11 16:52:00,
2013-01-11 10:55:00,62.8,60.7,29.23,South,185,3.1,3.1,93,0.00,,---,0.00,VWS V14.01,2013-01-11 16:55:00,
2013-01-11 10:57:00,62.8,60.7,29.23,South,180,5.8,5.8,93,0.00,,---,0.00,VWS V14.01,2013-01-11 16:57:00,
2013-01-11 11:00:00,62.8,60.7,29.23,NNW,332,3.1,3.1,93,0.00,,---,0.00,VWS V14.01,2013-01-11 17:00:00,
2013-01-11 11:01:00,62.8,60.7,29.23,NNW,332,3.1,3.1,93,0.00,,---,0.00,VWS V14.01,2013-01-11 17:01:00,
2013-01-11 11:02:00,62.8,60.7,29.23,NNW,332,3.1,3.1,93,0.00,,---,0.00,VWS V14.01,2013-01-11 17:02:00,
2013-01-11 11:05:00,62.8,60.7,29.23,South,169,5.8,5.8,93,0.00,,---,0.00,VWS V14.01,2013-01-11 17:05:00,
2013-01-11 11:06:00,62.8,60.7,29.23,South,169,5.8,5.8,93,0.00,,---,0.00,VWS V14.01,2013-01-11 17:06:00,
2013-01-11 11:07:00,63.0,60.9,29.23,South,169,5.8,5.8,93,0.00,,---,0.00,VWS V14.01,2013-01-11 17:07:00,
2013-01-11 11:10:00,62.8,60.7,29.23,SE,138,4.0,5.8,93,0.00,,---,0.00,VWS V14.01,2013-01-11 17:10:00,
2013-01-11 11:11:00,62.8,60.7,29.23,SSE,158,4.0,4.0,93,0.00,,---,0.00,VWS V14.01,2013-01-11 17:11:00,
2013-01-11 11:12:00,62.8,60.7,29.23,WNW,286,4.0,4.0,93,0.00,,---,0.00,VWS V14.01,2013-01-11 17:12:00,
2013-01-11 11:15:00,62.8,60.7,29.23,SSE,159,5.8,5.8,93,0.00,,---,0.00,VWS V14.01,2013-01-11 17:15:00,
2013-01-11 11:16:00,62.8,60.7,29.23,SSE,159,5.8,5.8,93,0.00,,---,0.00,VWS V14.01,2013-01-11 17:16:00,
2013-01-11 11:18:00,62.8,60.7,29.23,SE,136,3.1,5.8,93,0.00,,---,0.00,VWS V14.01,2013-01-11 17:18:00,
2013-01-11 11:21:00,62.8,60.7,29.23,SSE,156,6.7,6.7,93,0.00,,---,0.00,VWS V14.01,2013-01-11 17:21:00,
2013-01-11 11:23:00,62.8,60.7,29.23,SSE,156,6.7,6.7,93,0.00,,---,0.00,VWS V14.01,2013-01-11 17:23:00,
2013-01-11 11:26:00,63.0,60.9,29.23,South,182,3.1,5.4,93,0.00,,---,0.00,VWS V14.01,2013-01-11 17:26:00,
2013-01-11 11:28:00,63.0,60.9,29.23,South,173,4.0,4.0,93,0.00,,---,0.00,VWS V14.01,2013-01-11 17:28:00,
2013-01-11 11:31:00,63.0,60.9,29.23,SSW,209,3.1,3.1,93,0.00,,---,0.00,VWS V14.01,2013-01-11 17:31:00,
2013-01-11 11:33:00,63.1,61.1,29.23,SSE,157,4.9,4.9,93,0.00,,---,0.00,VWS V14.01,2013-01-11 17:33:00,
2013-01-11 11:36:00,63.1,61.1,29.23,SSE,157,4.9,4.9,93,0.00,,---,0.00,VWS V14.01,2013-01-11 17:36:00,
2013-01-11 11:39:00,63.1,61.1,29.23,SSE,165,4.0,4.0,93,0.00,,---,0.00,VWS V14.01,2013-01-11 17:39:00,
2013-01-11 11:41:00,63.1,61.1,29.23,SSE,161,3.6,3.6,93,0.00,,---,0.00,VWS V14.01,2013-01-11 17:41:00,
2013-01-11 11:44:00,63.1,61.1,29.23,SSE,161,3.6,3.6,93,0.00,,---,0.00,VWS V14.01,2013-01-11 17:44:00,
2013-01-11 11:46:00,63.1,61.1,29.23,SSE,152,6.3,6.3,93,0.00,,---,0.00,VWS V14.01,2013-01-11 17:46:00,
2013-01-11 11:49:00,63.1,61.1,29.23,South,178,8.1,8.1,93,0.00,,---,0.00,VWS V14.01,2013-01-11 17:49:00,
2013-01-11 11:51:00,63.3,61.3,29.23,South,178,8.1,8.1,93,0.00,,---,0.00,VWS V14.01,2013-01-11 17:51:00,
2013-01-11 11:52:00,63.3,61.3,29.23,South,178,8.1,8.1,93,0.00,,---,0.00,VWS V14.01,2013-01-11 17:52:00,
2013-01-11 11:54:00,63.3,61.3,29.23,SW,226,3.6,3.6,93,0.00,,---,0.00,VWS V14.01,2013-01-11 17:54:00,
2013-01-11 11:56:00,63.3,61.3,29.23,SW,226,3.6,3.6,93,0.00,,---,0.00,VWS V14.01,2013-01-11 17:56:00,
2013-01-11 11:57:00,63.3,61.3,29.23,SW,226,3.6,3.6,93,0.00,,---,0.00,VWS V14.01,2013-01-11 17:57:00,
2013-01-11 11:59:00,63.5,61.4,29.23,SSE,153,7.2,7.2,93,0.00,,---,0.00,VWS V14.01,2013-01-11 17:59:00,
2013-01-11 12:01:00,63.3,61.3,29.23,SSW,207,2.7,5.8,93,0.00,,---,0.00,VWS V14.01,2013-01-11 18:01:00,
2013-01-11 12:02:00,63.3,61.3,29.23,South,180,3.6,5.8,93,0.00,,---,0.00,VWS V14.01,2013-01-11 18:02:00,
2013-01-11 12:05:00,63.5,61.4,29.23,SSE,147,5.8,5.8,93,0.00,,---,0.00,VWS V14.01,2013-01-11 18:05:00,
2013-01-11 12:06:00,63.5,61.4,29.23,South,181,8.3,8.3,93,0.00,,---,0.00,VWS V14.01,2013-01-11 18:06:00,
2013-01-11 12:07:00,63.5,61.4,29.23,South,181,8.3,8.3,93,0.00,,---,0.00,VWS V14.01,2013-01-11 18:07:00,
2013-01-11 12:10:00,63.5,61.4,29.23,South,181,8.3,8.3,93,0.00,,---,0.00,VWS V14.01,2013-01-11 18:10:00,
2013-01-11 12:11:00,63.3,61.0,29.21,South,181,8.3,8.3,92,0.00,,---,0.00,VWS V14.01,2013-01-11 18:11:00,
2013-01-11 12:12:00,63.3,61.0,29.21,South,181,8.3,8.3,92,0.00,,---,0.00,VWS V14.01,2013-01-11 18:12:00,
2013-01-11 12:15:00,63.5,61.1,29.21,SSE,158,5.8,5.8,92,0.00,,---,0.00,VWS V14.01,2013-01-11 18:15:00,
2013-01-11 12:17:00,63.3,61.0,29.21,SSE,158,5.8,5.8,92,0.00,,---,0.00,VWS V14.01,2013-01-11 18:17:00,
2013-01-11 12:20:00,63.5,60.8,29.21,SSW,196,3.6,3.6,91,0.00,,---,0.00,VWS V14.01,2013-01-11 18:20:00,
2013-01-11 12:22:00,63.5,60.8,29.21,South,181,5.4,5.4,91,0.00,,---,0.00,VWS V14.01,2013-01-11 18:22:00,
2013-01-11 12:25:00,63.5,60.8,29.21,South,181,5.4,5.4,91,0.00,,---,0.00,VWS V14.01,2013-01-11 18:25:00,
2013-01-11 12:27:00,63.5,60.8,29.21,South,181,5.4,5.4,91,0.00,,---,0.00,VWS V14.01,2013-01-11 18:27:00,
2013-01-11 12:30:00,63.5,60.8,29.21,East,82,4.0,4.0,91,0.00,,---,0.00,VWS V14.01,2013-01-11 18:30:00,
2013-01-11 12:32:00,63.5,60.8,29.21,SSE,155,8.1,8.1,91,0.00,,---,0.00,VWS V14.01,2013-01-11 18:32:00,
2013-01-11 12:35:00,63.5,60.8,29.21,SE,139,8.1,8.1,91,0.00,,---,0.00,VWS V14.01,2013-01-11 18:35:00,
2013-01-11 12:37:00,63.5,60.8,29.21,SE,139,8.1,8.1,91,0.00,,---,0.00,VWS V14.01,2013-01-11 18:37:00,
2013-01-11 12:38:00,63.5,60.2,29.21,SE,139,8.1,8.1,89,0.00,,---,0.00,VWS V14.01,2013-01-11 18:38:00,
2013-01-11 12:40:00,63.5,60.2,29.21,SSE,156,8.1,8.1,89,0.00,,---,0.00,VWS V14.01,2013-01-11 18:40:00,
2013-01-11 12:42:00,63.7,60.1,29.21,SSE,156,8.1,8.1,88,0.00,,---,0.00,VWS V14.01,2013-01-11 18:42:00,
2013-01-11 12:43:00,63.7,60.1,29.21,SSE,156,8.1,8.1,88,0.00,,---,0.00,VWS V14.01,2013-01-11 18:43:00,
2013-01-11 12:45:00,63.7,60.1,29.21,South,178,5.4,8.1,88,0.00,,---,0.00,VWS V14.01,2013-01-11 18:45:00,
2013-01-11 12:48:00,63.7,60.1,29.21,South,178,5.4,5.4,88,0.00,,---,0.00,VWS V14.01,2013-01-11 18:48:00,
2013-01-11 12:50:00,63.5,59.2,29.21,South,178,5.4,5.4,86,0.00,,---,0.00,VWS V14.01,2013-01-11 18:50:00,
2013-01-11 12:53:00,63.5,59.2,29.21,South,178,5.4,5.4,86,0.00,,---,0.00,VWS V14.01,2013-01-11 18:53:00,
2013-01-11 12:56:00,63.5,59.2,29.21,South,171,6.3,6.3,86,0.00,,---,0.00,VWS V14.01,2013-01-11 18:56:00,
2013-01-11 12:58:00,63.5,59.2,29.21,South,171,6.3,6.3,86,0.00,,---,0.00,VWS V14.01,2013-01-11 18:58:00,
2013-01-11 13:01:00,63.5,59.2,29.21,SSE,161,4.9,4.9,86,0.00,,---,0.00,VWS V14.01,2013-01-11 19:01:00,
2013-01-11 13:03:00,63.5,59.2,29.21,SSE,161,4.9,4.9,86,0.00,,---,0.00,VWS V14.01,2013-01-11 19:03:00,
2013-01-11 13:06:00,63.7,59.1,29.21,South,173,4.0,4.0,85,0.00,,---,0.00,VWS V14.01,2013-01-11 19:06:00,
2013-01-11 13:08:00,63.7,59.1,29.21,South,182,5.8,5.8,85,0.00,,---,0.00,VWS V14.01,2013-01-11 19:08:00,
2013-01-11 13:09:00,63.7,59.1,29.21,South,182,5.8,5.8,85,0.00,,---,0.00,VWS V14.01,2013-01-11 19:09:00,
2013-01-11 13:11:00,63.7,59.1,29.21,South,182,5.8,5.8,85,0.00,,---,0.00,VWS V14.01,2013-01-11 19:11:00,
2013-01-11 13:13:00,63.7,59.1,29.21,South,184,2.2,2.2,85,0.00,,---,0.00,VWS V14.01,2013-01-11 19:13:00,
2013-01-11 13:14:00,63.7,59.1,29.21,South,184,2.2,2.2,85,0.00,,---,0.00,VWS V14.01,2013-01-11 19:14:00,
2013-01-11 13:16:00,63.7,59.1,29.21,South,184,2.2,2.2,85,0.00,,---,0.00,VWS V14.01,2013-01-11 19:16:00,
2013-01-11 13:18:00,63.9,59.6,29.21,South,173,4.0,4.0,86,0.00,,---,0.00,VWS V14.01,2013-01-11 19:18:00,
2013-01-11 13:19:00,63.9,59.6,29.21,South,173,4.0,4.0,86,0.00,,---,0.00,VWS V14.01,2013-01-11 19:19:00,
2013-01-11 13:21:00,63.9,59.6,29.21,SSE,154,3.1,4.0,86,0.00,,---,0.00,VWS V14.01,2013-01-11 19:21:00,
2013-01-11 13:23:00,63.9,59.6,29.21,SSE,154,3.1,3.1,86,0.00,,---,0.00,VWS V14.01,2013-01-11 19:23:00,
2013-01-11 13:24:00,64.0,59.8,29.21,SSE,154,3.1,3.1,86,0.00,,---,0.00,VWS V14.01,2013-01-11 19:24:00,
2013-01-11 13:26:00,64.2,60.0,29.21,South,180,3.6,3.6,86,0.00,,---,0.00,VWS V14.01,2013-01-11 19:26:00,
2013-01-11 13:28:00,64.2,60.0,29.21,South,169,5.4,5.4,86,0.00,,---,0.00,VWS V14.01,2013-01-11 19:28:00,
2013-01-11 13:29:00,64.2,60.0,29.21,South,169,5.4,5.4,86,0.00,,---,0.00,VWS V14.01,2013-01-11 19:29:00,
2013-01-11 13:31:00,64.2,60.0,29.21,SSE,166,3.1,3.1,86,0.00,,---,0.00,VWS V14.01,2013-01-11 19:31:00,
2013-01-11 13:33:00,64.2,60.0,29.21,SSE,166,3.1,3.1,86,0.00,,---,0.00,VWS V14.01,2013-01-11 19:33:00,
2013-01-11 13:34:00,64.0,59.5,29.21,SSE,166,3.1,3.1,85,0.00,,---,0.00,VWS V14.01,2013-01-11 19:34:00,
2013-01-11 13:36:00,64.0,59.5,29.21,SSE,166,3.1,3.1,85,0.00,,---,0.00,VWS V14.01,2013-01-11 19:36:00,
2013-01-11 13:38:00,64.0,59.5,29.21,South,176,4.0,4.0,85,0.00,,---,0.00,VWS V14.01,2013-01-11 19:38:00,
2013-01-11 13:40:00,64.0,59.5,29.21,SE,142,4.0,4.0,85,0.00,,---,0.00,VWS V14.01,2013-01-11 19:40:00,
2013-01-11 13:41:00,64.0,59.5,29.21,SE,142,4.0,4.0,85,0.00,,---,0.00,VWS V14.01,2013-01-11 19:41:00,
2013-01-11 13:43:00,64.0,59.1,29.21,SE,142,4.0,4.0,84,0.00,,---,0.00,VWS V14.01,2013-01-11 19:43:00,
2013-01-11 13:44:00,64.0,59.1,29.21,SE,142,4.0,4.0,84,0.00,,---,0.00,VWS V14.01,2013-01-11 19:44:00,
2013-01-11 13:45:00,64.2,59.3,29.21,SE,142,4.0,4.0,84,0.00,,---,0.00,VWS V14.01,2013-01-11 19:45:00,
2013-01-11 13:46:00,64.2,59.3,29.21,SE,142,4.0,4.0,84,0.00,,---,0.00,VWS V14.01,2013-01-11 19:46:00,
2013-01-11 13:48:00,64.2,59.3,29.21,South,180,3.6,3.6,84,0.00,,---,0.00,VWS V14.01,2013-01-11 19:48:00,
2013-01-11 13:49:00,64.2,59.3,29.21,South,180,3.6,3.6,84,0.00,,---,0.00,VWS V14.01,2013-01-11 19:49:00,
2013-01-11 13:50:00,64.2,59.3,29.21,South,180,3.6,3.6,84,0.00,,---,0.00,VWS V14.01,2013-01-11 19:50:00,
2013-01-11 13:52:00,64.2,59.3,29.21,South,172,3.1,3.6,84,0.00,,---,0.00,VWS V14.01,2013-01-11 19:52:00,
2013-01-11 13:53:00,64.2,59.3,29.21,South,172,3.1,3.1,84,0.00,,---,0.00,VWS V14.01,2013-01-11 19:53:00,
2013-01-11 13:54:00,64.2,59.3,29.21,South,172,3.1,3.1,84,0.00,,---,0.00,VWS V14.01,2013-01-11 19:54:00,
2013-01-11 13:55:00,64.2,59.3,29.21,South,172,3.1,3.1,84,0.00,,---,0.00,VWS V14.01,2013-01-11 19:55:00,
2013-01-11 13:57:00,64.2,59.3,29.21,SSE,162,2.7,2.7,84,0.00,,---,0.00,VWS V14.01,2013-01-11 19:57:00,
2013-01-11 13:58:00,64.2,59.3,29.21,SSE,162,2.7,2.7,84,0.00,,---,0.00,VWS V14.01,2013-01-11 19:58:00,
2013-01-11 13:59:00,64.2,59.3,29.21,SSE,162,2.7,2.7,84,0.00,,---,0.00,VWS V14.01,2013-01-11 19:59:00,
2013-01-11 14:00:00,64.2,59.3,29.21,SSE,162,2.7,2.7,84,0.00,,---,0.00,VWS V14.01,2013-01-11 20:00:00,
2013-01-11 14:02:00,64.2,59.3,29.21,SSE,162,2.7,2.7,84,0.00,,---,0.00,VWS V14.01,2013-01-11 20:02:00,
2013-01-11 14:03:00,64.2,59.3,29.21,SSE,162,2.7,2.7,84,0.00,,---,0.00,VWS V14.01,2013-01-11 20:03:00,
2013-01-11 14:04:00,64.0,59.1,29.21,SSE,162,2.7,2.7,84,0.00,,---,0.00,VWS V14.01,2013-01-11 20:04:00,
2013-01-11 14:05:00,64.0,59.1,29.21,South,185,2.7,2.7,84,0.00,,---,0.00,VWS V14.01,2013-01-11 20:05:00,
2013-01-11 14:07:00,64.0,59.1,29.21,South,185,2.7,2.7,84,0.00,,---,0.00,VWS V14.01,2013-01-11 20:07:00,
2013-01-11 14:08:00,64.0,59.1,29.21,South,185,2.7,2.7,84,0.00,,---,0.00,VWS V14.01,2013-01-11 20:08:00,
2013-01-11 14:09:00,64.0,59.1,29.21,South,185,2.7,2.7,84,0.00,,---,0.00,VWS V14.01,2013-01-11 20:09:00,
2013-01-11 14:10:00,64.0,59.1,29.21,SSE,154,3.1,3.1,84,0.00,,---,0.00,VWS V14.01,2013-01-11 20:10:00,
2013-01-11 14:12:00,64.0,59.1,29.21,SSE,153,0.0,0.0,84,0.00,,---,0.00,VWS V14.01,2013-01-11 20:12:00,
2013-01-11 14:13:00,64.0,59.1,29.21,SSW,199,0.0,0.0,84,0.00,,---,0.00,VWS V14.01,2013-01-11 20:13:00,
2013-01-11 14:14:00,64.0,59.1,29.21,SSW,199,0.0,0.0,84,0.00,,---,0.00,VWS V14.01,2013-01-11 20:14:00,
2013-01-11 14:16:00,64.0,59.1,29.21,SSW,199,0.0,0.0,84,0.00,,---,0.00,VWS V14.01,2013-01-11 20:16:00,
2013-01-11 14:18:00,64.0,59.1,29.21,SSW,199,0.0,0.0,84,0.00,,---,0.00,VWS V14.01,2013-01-11 20:18:00,
2013-01-11 14:19:00,64.0,59.1,29.21,South,182,2.7,2.7,84,0.00,,---,0.00,VWS V14.01,2013-01-11 20:19:00,
2013-01-11 14:21:00,64.0,59.1,29.21,South,182,2.7,2.7,84,0.00,,---,0.00,VWS V14.01,2013-01-11 20:21:00,
2013-01-11 14:23:00,64.0,59.1,29.21,South,181,2.7,2.7,84,0.00,,---,0.00,VWS V14.01,2013-01-11 20:23:00,
2013-01-11 14:24:00,64.0,59.1,29.21,South,181,2.7,2.7,84,0.00,,---,0.00,VWS V14.01,2013-01-11 20:24:00,
2013-01-11 14:26:00,63.9,58.9,29.21,South,181,2.7,2.7,84,0.00,,---,0.00,VWS V14.01,2013-01-11 20:26:00,
2013-01-11 14:28:00,63.9,58.9,29.21,South,181,2.7,2.7,84,0.00,,---,0.00,VWS V14.01,2013-01-11 20:28:00,
2013-01-11 14:30:00,63.9,58.9,29.21,South,181,2.7,2.7,84,0.00,,---,0.00,VWS V14.01,2013-01-11 20:30:00,
2013-01-11 14:31:00,63.9,58.9,29.21,South,181,2.7,2.7,84,0.00,,---,0.00,VWS V14.01,2013-01-11 20:31:00,
2013-01-11 14:33:00,63.9,58.9,29.21,South,181,3.6,3.6,84,0.00,,---,0.00,VWS V14.01,2013-01-11 20:33:00,
2013-01-11 14:34:00,63.9,58.9,29.21,South,181,3.6,3.6,84,0.00,,---,0.00,VWS V14.01,2013-01-11 20:34:00,
2013-01-11 14:35:00,63.9,58.9,29.21,South,181,3.6,3.6,84,0.00,,---,0.00,VWS V14.01,2013-01-11 20:35:00,
2013-01-11 14:36:00,63.9,58.9,29.21,South,181,3.6,3.6,84,0.00,,---,0.00,VWS V14.01,2013-01-11 20:36:00,
2013-01-11 14:38:00,63.9,58.9,29.21,SSE,163,3.6,3.6,84,0.00,,---,0.00,VWS V14.01,2013-01-11 20:38:00,
2013-01-11 14:39:00,63.9,58.9,29.21,SSE,163,3.6,3.6,84,0.00,,---,0.00,VWS V14.01,2013-01-11 20:39:00,
2013-01-11 14:40:00,63.9,58.9,29.21,SSE,163,3.6,3.6,84,0.00,,---,0.00,VWS V14.01,2013-01-11 20:40:00,
2013-01-11 14:41:00,63.9,58.9,29.21,SSE,163,3.6,3.6,84,0.00,,---,0.00,VWS V14.01,2013-01-11 20:41:00,
2013-01-11 14:43:00,63.9,58.9,29.21,SSE,163,3.6,3.6,84,0.00,,---,0.00,VWS V14.01,2013-01-11 20:43:00,
2013-01-11 14:44:00,63.9,58.9,29.21,SSE,163,4.0,4.0,84,0.00,,---,0.00,VWS V14.01,2013-01-11 20:44:00,
2013-01-11 14:45:00,63.9,58.9,29.21,SSE,164,8.3,8.3,84,0.00,,---,0.00,VWS V14.01,2013-01-11 20:45:00,
2013-01-11 14:46:00,63.9,58.9,29.21,SSE,164,8.3,8.3,84,0.00,,---,0.00,VWS V14.01,2013-01-11 20:46:00,
2013-01-11 14:48:00,63.9,58.9,29.21,SSE,158,3.1,3.1,84,0.00,,---,0.00,VWS V14.01,2013-01-11 20:48:00,
2013-01-11 14:49:00,63.9,58.9,29.21,SSE,158,3.1,3.1,84,0.00,,---,0.00,VWS V14.01,2013-01-11 20:49:00,
2013-01-11 14:50:00,63.9,58.9,29.21,SSE,158,3.1,3.1,84,0.00,,---,0.00,VWS V14.01,2013-01-11 20:50:00,
2013-01-11 14:51:00,63.9,58.9,29.21,SSE,158,3.1,3.1,84,0.00,,---,0.00,VWS V14.01,2013-01-11 20:51:00,
2013-01-11 14:53:00,63.7,59.7,29.21,SSE,158,3.1,3.1,87,0.00,,---,0.00,VWS V14.01,2013-01-11 20:53:00,
2013-01-11 14:54:00,63.7,59.7,29.21,SSE,158,3.1,3.1,87,0.00,,---,0.00,VWS V14.01,2013-01-11 20:54:00,
2013-01-11 14:55:00,63.7,59.7,29.21,SSE,158,3.1,3.1,87,0.00,,---,0.00,VWS V14.01,2013-01-11 20:55:00,
2013-01-11 14:56:00,63.7,59.7,29.21,SSE,158,3.1,3.1,87,0.00,,---,0.00,VWS V14.01,2013-01-11 20:56:00,
2013-01-11 14:58:00,63.9,60.2,29.21,SSE,158,3.1,3.1,88,0.00,,---,0.00,VWS V14.01,2013-01-11 20:58:00,
2013-01-11 14:59:00,63.9,60.2,29.21,SSE,158,3.1,3.1,88,0.00,,---,0.00,VWS V14.01,2013-01-11 20:59:00,
2013-01-11 15:00:00,63.9,60.2,29.21,SSE,158,3.1,3.1,88,0.00,,---,0.00,VWS V14.01,2013-01-11 21:00:00,
2013-01-11 15:01:00,63.9,60.2,29.21,SSE,158,3.1,3.1,88,0.00,,---,0.00,VWS V14.01,2013-01-11 21:01:00,
2013-01-11 15:03:00,63.9,60.2,29.21,South,172,5.8,5.8,88,0.00,,---,0.00,VWS V14.01,2013-01-11 21:03:00,
2013-01-11 15:04:00,63.9,60.2,29.21,South,172,5.8,5.8,88,0.00,,---,0.00,VWS V14.01,2013-01-11 21:04:00,
2013-01-11 15:05:00,63.9,60.2,29.21,SSE,167,5.8,5.8,88,0.00,,---,0.00,VWS V14.01,2013-01-11 21:05:00,
2013-01-11 15:06:00,63.9,60.2,29.21,SSE,167,5.8,5.8,88,0.00,,---,0.00,VWS V14.01,2013-01-11 21:06:00,
2013-01-11 15:08:00,63.9,60.2,29.21,SSE,167,5.8,5.8,88,0.00,,---,0.00,VWS V14.01,2013-01-11 21:08:00,
2013-01-11 15:09:00,63.9,60.2,29.21,SSE,167,5.8,5.8,88,0.00,,---,0.00,VWS V14.01,2013-01-11 21:09:00,
2013-01-11 15:10:00,63.9,60.2,29.21,SSE,167,5.8,5.8,88,0.00,,---,0.00,VWS V14.01,2013-01-11 21:10:00,
2013-01-11 15:11:00,63.9,60.2,29.21,SSE,167,5.8,5.8,88,0.00,,---,0.00,VWS V14.01,2013-01-11 21:11:00,
2013-01-11 15:13:00,63.9,60.2,29.21,SSE,166,7.6,7.6,88,0.00,,---,0.00,VWS V14.01,2013-01-11 21:13:00,
2013-01-11 15:14:00,63.9,60.2,29.21,SSE,168,5.4,5.4,88,0.00,,---,0.00,VWS V14.01,2013-01-11 21:14:00,
2013-01-11 15:15:00,63.9,60.2,29.21,South,174,7.6,7.6,88,0.00,,---,0.00,VWS V14.01,2013-01-11 21:15:00,
2013-01-11 15:16:00,63.9,60.2,29.21,South,182,5.8,7.6,88,0.00,,---,0.00,VWS V14.01,2013-01-11 21:16:00,
2013-01-11 15:18:00,64.0,60.4,29.18,South,182,5.8,5.8,88,0.00,,---,0.00,VWS V14.01,2013-01-11 21:18:00,
2013-01-11 15:19:00,64.0,60.4,29.18,South,182,5.8,5.8,88,0.00,,---,0.00,VWS V14.01,2013-01-11 21:19:00,
2013-01-11 15:21:00,64.0,60.4,29.18,South,182,5.8,5.8,88,0.00,,---,0.00,VWS V14.01,2013-01-11 21:21:00,
2013-01-11 15:23:00,64.0,60.4,29.18,South,182,5.8,5.8,88,0.00,,---,0.00,VWS V14.01,2013-01-11 21:23:00,
2013-01-11 15:24:00,64.0,60.4,29.18,South,182,5.8,5.8,88,0.00,,---,0.00,VWS V14.01,2013-01-11 21:24:00,
2013-01-11 15:26:00,64.0,60.4,29.18,South,173,8.3,8.3,88,0.00,,---,0.00,VWS V14.01,2013-01-11 21:26:00,
2013-01-11 15:28:00,64.0,60.4,29.18,South,173,8.3,8.3,88,0.00,,---,0.00,VWS V14.01,2013-01-11 21:28:00,
2013-01-11 15:29:00,64.0,60.4,29.18,SSE,154,7.6,8.3,88,0.00,,---,0.00,VWS V14.01,2013-01-11 21:29:00,
2013-01-11 15:31:00,63.9,60.2,29.18,SSE,157,8.3,8.3,88,0.00,,---,0.00,VWS V14.01,2013-01-11 21:31:00,
2013-01-11 15:32:00,63.9,60.2,29.18,SSE,157,8.3,8.3,88,0.00,,---,0.00,VWS V14.01,2013-01-11 21:32:00,
2013-01-11 15:33:00,63.9,60.2,29.18,SSE,161,6.3,6.3,88,0.00,,---,0.00,VWS V14.01,2013-01-11 21:33:00,
2013-01-11 15:35:00,63.9,60.2,29.18,SSE,161,6.3,6.3,88,0.00,,---,0.00,VWS V14.01,2013-01-11 21:35:00,
2013-01-11 15:36:00,63.9,60.2,29.18,SSE,161,6.3,6.3,88,0.00,,---,0.00,VWS V14.01,2013-01-11 21:36:00,
2013-01-11 15:37:00,63.9,60.2,29.18,SSE,161,6.3,6.3,88,0.00,,---,0.00,VWS V14.01,2013-01-11 21:37:00,
2013-01-11 15:38:00,63.9,60.2,29.18,SSE,161,4.9,6.3,88,0.00,,---,0.00,VWS V14.01,2013-01-11 21:38:00,
2013-01-11 15:40:00,63.9,60.2,29.18,SSE,168,6.3,6.3,88,0.00,,---,0.00,VWS V14.01,2013-01-11 21:40:00,
2013-01-11 15:41:00,63.9,60.2,29.18,SSE,168,6.3,6.3,88,0.00,,---,0.00,VWS V14.01,2013-01-11 21:41:00,
2013-01-11 15:42:00,63.9,60.2,29.18,SSE,168,6.3,6.3,88,0.00,,---,0.00,VWS V14.01,2013-01-11 21:42:00,
2013-01-11 15:44:00,63.9,59.9,29.21,SSE,168,6.3,6.3,87,0.00,,---,0.00,VWS V14.01,2013-01-11 21:44:00,
2013-01-11 15:45:00,63.9,59.9,29.21,SSE,168,6.3,6.3,87,0.00,,---,0.00,VWS V14.01,2013-01-11 21:45:00,
2013-01-11 15:47:00,63.9,59.9,29.21,SSE,165,8.3,8.3,87,0.00,,---,0.00,VWS V14.01,2013-01-11 21:47:00,
2013-01-11 15:49:00,63.9,59.9,29.21,SSE,165,8.3,8.3,87,0.00,,---,0.00,VWS V14.01,2013-01-11 21:49:00,
2013-01-11 15:50:00,63.9,59.9,29.21,SSE,158,5.4,8.3,87,0.00,,---,0.00,VWS V14.01,2013-01-11 21:50:00,
2013-01-11 15:52:00,63.7,60.1,29.21,SSE,158,5.8,7.2,88,0.00,,---,0.00,VWS V14.01,2013-01-11 21:52:00,
2013-01-11 15:54:00,63.7,60.1,29.21,South,170,4.9,5.8,88,0.00,,---,0.00,VWS V14.01,2013-01-11 21:54:00,
2013-01-11 15:55:00,63.7,60.1,29.21,SSE,162,8.3,8.3,88,0.00,,---,0.00,VWS V14.01,2013-01-11 21:55:00,
2013-01-11 15:57:00,63.7,60.1,29.18,SSE,151,5.4,5.4,88,0.00,,---,0.00,VWS V14.01,2013-01-11 21:57:00,
2013-01-11 15:59:00,63.7,60.1,29.18,SSE,150,5.4,5.4,88,0.00,,---,0.00,VWS V14.01,2013-01-11 21:59:00,
2013-01-11 16:00:00,63.7,60.1,29.18,SSE,150,5.4,5.4,88,0.00,,---,0.00,VWS V14.01,2013-01-11 22:00:00,
2013-01-11 16:02:00,63.7,60.1,29.18,South,172,4.0,4.0,88,0.00,,---,0.00,VWS V14.01,2013-01-11 22:02:00,
2013-01-11 16:03:00,63.7,60.1,29.18,South,172,4.0,4.0,88,0.00,,---,0.00,VWS V14.01,2013-01-11 22:03:00,
2013-01-11 16:05:00,63.7,60.1,29.18,South,171,5.4,5.4,88,0.00,,---,0.00,VWS V14.01,2013-01-11 22:05:00,
2013-01-11 16:07:00,63.7,60.1,29.18,South,188,5.8,7.2,88,0.00,,---,0.00,VWS V14.01,2013-01-11 22:07:00,
2013-01-11 16:08:00,63.7,60.1,29.18,South,188,5.8,5.8,88,0.00,,---,0.00,VWS V14.01,2013-01-11 22:08:00,
2013-01-11 16:10:00,63.5,59.9,29.18,South,188,5.8,5.8,88,0.00,,---,0.00,VWS V14.01,2013-01-11 22:10:00,
2013-01-11 16:13:00,63.5,59.9,29.18,South,173,5.8,5.8,88,0.00,,---,0.00,VWS V14.01,2013-01-11 22:13:00,
2013-01-11 16:15:00,63.5,59.9,29.18,SSE,167,2.7,2.7,88,0.00,,---,0.00,VWS V14.01,2013-01-11 22:15:00,
2013-01-11 16:16:00,63.5,59.9,29.18,SSE,167,2.7,2.7,88,0.00,,---,0.00,VWS V14.01,2013-01-11 22:16:00,
2013-01-11 16:18:00,63.5,59.9,29.18,South,182,5.4,5.4,88,0.00,,---,0.00,VWS V14.01,2013-01-11 22:18:00,
2013-01-11 16:20:00,63.5,59.9,29.18,South,185,4.0,4.0,88,0.00,,---,0.00,VWS V14.01,2013-01-11 22:20:00,
2013-01-11 16:21:00,63.5,59.9,29.18,South,181,8.1,8.1,88,0.00,,---,0.00,VWS V14.01,2013-01-11 22:21:00,
2013-01-11 16:23:00,63.5,59.9,29.18,SSE,164,5.8,8.1,88,0.00,,---,0.00,VWS V14.01,2013-01-11 22:23:00,
2013-01-11 16:25:00,63.5,59.9,29.21,SSE,166,5.4,5.4,88,0.00,,---,0.00,VWS V14.01,2013-01-11 22:25:00,
2013-01-11 16:27:00,63.5,59.9,29.21,SSE,166,5.4,5.4,88,0.00,,---,0.00,VWS V14.01,2013-01-11 22:27:00,
2013-01-11 16:28:00,63.5,59.9,29.21,SSE,166,5.4,5.4,88,0.00,,---,0.00,VWS V14.01,2013-01-11 22:28:00,
2013-01-11 16:30:00,63.5,59.9,29.21,SSE,161,4.0,4.0,88,0.00,,---,0.00,VWS V14.01,2013-01-11 22:30:00,
2013-01-11 16:32:00,63.5,59.9,29.21,SSE,161,5.8,5.8,88,0.00,,---,0.00,VWS V14.01,2013-01-11 22:32:00,
2013-01-11 16:33:00,63.5,59.9,29.21,SSE,161,5.8,5.8,88,0.00,,---,0.00,VWS V14.01,2013-01-11 22:33:00,
2013-01-11 16:34:00,63.5,59.9,29.21,SSE,157,4.9,5.8,88,0.00,,---,0.00,VWS V14.01,2013-01-11 22:34:00,
2013-01-11 16:36:00,63.3,60.0,29.21,SSE,148,4.9,4.9,89,0.00,,---,0.00,VWS V14.01,2013-01-11 22:36:00,
2013-01-11 16:37:00,63.3,60.0,29.21,SSE,148,4.9,4.9,89,0.00,,---,0.00,VWS V14.01,2013-01-11 22:37:00,
2013-01-11 16:38:00,63.3,60.0,29.21,SSE,148,4.9,4.9,89,0.00,,---,0.00,VWS V14.01,2013-01-11 22:38:00,
2013-01-11 16:39:00,63.3,60.0,29.21,SSE,148,4.9,4.9,89,0.00,,---,0.00,VWS V14.01,2013-01-11 22:39:00,
2013-01-11 16:41:00,63.3,60.0,29.21,SSE,148,4.9,4.9,89,0.00,,---,0.00,VWS V14.01,2013-01-11 22:41:00,
2013-01-11 16:42:00,63.3,60.0,29.21,SSE,148,4.9,4.9,89,0.00,,---,0.00,VWS V14.01,2013-01-11 22:42:00,
2013-01-11 16:43:00,63.3,60.0,29.21,SE,145,4.9,4.9,89,0.00,,---,0.00,VWS V14.01,2013-01-11 22:43:00,
2013-01-11 16:44:00,63.3,60.0,29.21,SE,145,4.9,4.9,89,0.00,,---,0.00,VWS V14.01,2013-01-11 22:44:00,
2013-01-11 16:46:00,63.3,60.0,29.21,SSE,147,5.4,5.4,89,0.00,,---,0.00,VWS V14.01,2013-01-11 22:46:00,
2013-01-11 16:47:00,63.3,60.0,29.21,SSE,168,5.4,5.4,89,0.00,,---,0.00,VWS V14.01,2013-01-11 22:47:00,
2013-01-11 16:48:00,63.3,60.0,29.21,SSE,148,5.8,5.8,89,0.00,,---,0.00,VWS V14.01,2013-01-11 22:48:00,
2013-01-11 16:49:00,63.3,60.0,29.21,SSE,163,7.6,7.6,89,0.00,,---,0.00,VWS V14.01,2013-01-11 22:49:00,
2013-01-11 16:51:00,63.3,60.0,29.21,SSE,168,8.1,8.1,89,0.00,,---,0.00,VWS V14.01,2013-01-11 22:51:00,
2013-01-11 16:52:00,63.3,60.0,29.21,SSE,168,8.1,8.1,89,0.00,,---,0.00,VWS V14.01,2013-01-11 22:52:00,
2013-01-11 16:54:00,63.3,60.0,29.21,SSE,168,8.1,8.1,89,0.00,,---,0.00,VWS V14.01,2013-01-11 22:54:00,
2013-01-11 16:56:00,63.1,60.2,29.21,South,169,5.8,5.8,90,0.04,,---,0.04,VWS V14.01,2013-01-11 22:56:00,
2013-01-11 16:57:00,63.1,60.2,29.21,South,185,4.0,5.8,90,0.04,,---,0.04,VWS V14.01,2013-01-11 22:57:00,
2013-01-11 16:59:00,63.1,60.2,29.21,South,185,5.8,5.8,90,0.04,,---,0.04,VWS V14.01,2013-01-11 22:59:00,
2013-01-11 17:01:00,63.1,60.2,29.21,SSE,162,4.9,5.8,90,0.04,,---,0.04,VWS V14.01,2013-01-11 23:01:00,
2013-01-11 17:02:00,63.1,60.2,29.21,SSE,162,4.9,4.9,90,0.04,,---,0.04,VWS V14.01,2013-01-11 23:02:00,
2013-01-11 17:04:00,63.1,60.2,29.21,SSE,162,4.9,4.9,90,0.04,,---,0.04,VWS V14.01,2013-01-11 23:04:00,
2013-01-11 17:06:00,63.1,60.2,29.21,SSW,195,5.8,5.8,90,0.04,,---,0.04,VWS V14.01,2013-01-11 23:06:00,
2013-01-11 17:07:00,63.1,60.2,29.21,SSW,195,5.8,5.8,90,0.04,,---,0.04,VWS V14.01,2013-01-11 23:07:00,
2013-01-11 17:09:00,63.1,60.2,29.21,SSE,157,3.1,3.1,90,0.04,,---,0.04,VWS V14.01,2013-01-11 23:09:00,
2013-01-11 17:11:00,63.0,60.3,29.21,SE,136,3.6,3.6,91,0.04,,---,0.04,VWS V14.01,2013-01-11 23:11:00,
2013-01-11 17:12:00,63.0,60.3,29.21,SSE,149,4.9,4.9,91,0.04,,---,0.04,VWS V14.01,2013-01-11 23:12:00,
2013-01-11 17:14:00,63.0,60.3,29.21,SSE,155,3.6,3.6,91,0.04,,---,0.04,VWS V14.01,2013-01-11 23:14:00,
2013-01-11 17:16:00,63.0,60.3,29.21,South,176,4.0,4.0,91,0.04,,---,0.04,VWS V14.01,2013-01-11 23:16:00,
2013-01-11 17:17:00,63.0,60.3,29.21,SE,144,5.8,5.8,91,0.04,,---,0.04,VWS V14.01,2013-01-11 23:17:00,
2013-01-11 17:19:00,63.0,60.3,29.21,SE,143,4.9,4.9,91,0.04,,---,0.04,VWS V14.01,2013-01-11 23:19:00,
2013-01-11 17:21:00,63.0,60.3,29.21,SE,143,4.9,4.9,91,0.04,,---,0.04,VWS V14.01,2013-01-11 23:21:00,
2013-01-11 17:23:00,63.0,60.3,29.21,South,170,4.0,4.9,91,0.04,,---,0.04,VWS V14.01,2013-01-11 23:23:00,
2013-01-11 17:24:00,63.0,60.3,29.21,South,170,4.0,4.0,91,0.04,,---,0.04,VWS V14.01,2013-01-11 23:24:00,
2013-01-11 17:25:00,63.0,60.3,29.21,South,179,3.1,4.0,91,0.04,,---,0.04,VWS V14.01,2013-01-11 23:25:00,
2013-01-11 17:26:00,63.0,60.3,29.21,South,179,2.7,2.7,91,0.04,,---,0.04,VWS V14.01,2013-01-11 23:26:00,
2013-01-11 17:28:00,63.0,60.3,29.21,South,169,2.7,2.7,91,0.04,,---,0.04,VWS V14.01,2013-01-11 23:28:00,
2013-01-11 17:29:00,63.0,60.3,29.21,South,169,2.7,2.7,91,0.04,,---,0.04,VWS V14.01,2013-01-11 23:29:00,
2013-01-11 17:30:00,63.0,60.3,29.21,South,169,2.7,2.7,91,0.04,,---,0.04,VWS V14.01,2013-01-11 23:30:00,
2013-01-11 17:31:00,63.0,60.3,29.21,SE,143,2.2,2.2,91,0.04,,---,0.04,VWS V14.01,2013-01-11 23:31:00,
2013-01-11 17:33:00,63.0,60.3,29.21,SSE,157,2.7,2.7,91,0.04,,---,0.04,VWS V14.01,2013-01-11 23:33:00,
2013-01-11 17:34:00,63.0,60.3,29.21,SSE,157,3.1,3.1,91,0.04,,---,0.04,VWS V14.01,2013-01-11 23:34:00,
2013-01-11 17:35:00,63.0,60.3,29.21,SSE,157,3.1,3.1,91,0.04,,---,0.04,VWS V14.01,2013-01-11 23:35:00,
2013-01-11 17:36:00,62.8,60.1,29.21,SSE,161,2.7,2.7,91,0.04,,---,0.04,VWS V14.01,2013-01-11 23:36:00,
2013-01-11 17:38:00,62.8,60.4,29.21,SSE,161,2.7,2.7,92,0.04,,---,0.04,VWS V14.01,2013-01-11 23:38:00,
2013-01-11 17:39:00,62.8,60.4,29.21,SSE,161,2.7,2.7,92,0.04,,---,0.04,VWS V14.01,2013-01-11 23:39:00,
2013-01-11 17:40:00,62.8,60.4,29.21,SSE,161,2.7,2.7,92,0.04,,---,0.04,VWS V14.01,2013-01-11 23:40:00,
2013-01-11 17:41:00,62.8,60.4,29.21,South,180,3.6,3.6,92,0.04,,---,0.04,VWS V14.01,2013-01-11 23:41:00,
2013-01-11 17:43:00,62.8,60.4,29.21,South,169,3.6,3.6,92,0.04,,---,0.04,VWS V14.01,2013-01-11 23:43:00,
2013-01-11 17:44:00,62.8,60.4,29.21,South,169,3.6,3.6,92,0.04,,---,0.04,VWS V14.01,2013-01-11 23:44:00,
2013-01-11 17:45:00,62.8,60.4,29.21,South,169,3.6,3.6,92,0.04,,---,0.04,VWS V14.01,2013-01-11 23:45:00,
2013-01-11 17:46:00,62.8,60.4,29.21,South,169,3.6,3.6,92,0.04,,---,0.04,VWS V14.01,2013-01-11 23:46:00,
2013-01-11 17:48:00,62.8,60.4,29.21,South,169,3.6,3.6,92,0.04,,---,0.04,VWS V14.01,2013-01-11 23:48:00,
2013-01-11 17:49:00,62.8,60.4,29.21,South,169,3.6,3.6,92,0.04,,---,0.04,VWS V14.01,2013-01-11 23:49:00,
2013-01-11 17:50:00,62.8,60.4,29.21,SSE,162,4.0,4.0,92,0.04,,---,0.04,VWS V14.01,2013-01-11 23:50:00,
2013-01-11 17:51:00,62.8,60.4,29.21,South,170,3.1,3.1,92,0.04,,---,0.04,VWS V14.01,2013-01-11 23:51:00,
2013-01-11 17:53:00,62.8,60.4,29.21,South,170,3.1,3.1,92,0.04,,---,0.04,VWS V14.01,2013-01-11 23:53:00,
2013-01-11 17:54:00,62.8,60.4,29.21,SSE,168,3.1,3.1,92,0.04,,---,0.04,VWS V14.01,2013-01-11 23:54:00,
2013-01-11 17:55:00,62.8,60.4,29.21,SSE,168,3.1,3.1,92,0.00,,---,0.04,VWS V14.01,2013-01-11 23:55:00,
2013-01-11 17:56:00,62.8,60.4,29.21,SSE,168,3.1,3.1,92,0.00,,---,0.04,VWS V14.01,2013-01-11 23:56:00,
2013-01-11 17:58:00,62.8,60.4,29.21,SSE,158,4.9,4.9,92,0.00,,---,0.04,VWS V14.01,2013-01-11 23:58:00,
2013-01-11 17:59:00,62.8,60.4,29.21,SSE,158,4.9,4.9,92,0.00,,---,0.04,VWS V14.01,2013-01-11 23:59:00,
2013-01-11 18:00:00,62.8,60.4,29.21,SSE,158,4.9,4.9,92,0.00,,---,0.04,VWS V14.01,2013-01-12 00:00:00,
2013-01-11 18:02:00,62.8,60.4,29.21,South,186,3.6,3.6,92,0.00,,---,0.04,VWS V14.01,2013-01-12 00:02:00,
2013-01-11 18:03:00,62.8,60.4,29.21,South,171,4.0,4.0,92,0.00,,---,0.04,VWS V14.01,2013-01-12 00:03:00,
2013-01-11 18:04:00,62.8,60.4,29.21,South,171,4.0,4.0,92,0.00,,---,0.04,VWS V14.01,2013-01-12 00:04:00,
2013-01-11 18:05:00,62.8,60.4,29.21,South,171,4.0,4.0,92,0.00,,---,0.04,VWS V14.01,2013-01-12 00:05:00,
2013-01-11 18:07:00,62.8,60.4,29.21,South,172,4.0,4.0,92,0.00,,---,0.04,VWS V14.01,2013-01-12 00:07:00,
2013-01-11 18:09:00,62.8,60.4,29.21,SSE,157,4.0,4.0,92,0.00,,---,0.04,VWS V14.01,2013-01-12 00:09:00,
2013-01-11 18:10:00,62.8,60.4,29.21,SSE,157,4.0,4.0,92,0.00,,---,0.04,VWS V14.01,2013-01-12 00:10:00,
2013-01-11 18:12:00,62.8,60.4,29.21,SSE,157,4.0,4.0,92,0.00,,---,0.04,VWS V14.01,2013-01-12 00:12:00,
2013-01-11 18:14:00,62.8,60.4,29.21,SSE,157,4.0,4.0,92,0.00,,---,0.04,VWS V14.01,2013-01-12 00:14:00,
2013-01-11 18:15:00,62.8,60.4,29.21,SSE,157,4.0,4.0,92,0.00,,---,0.04,VWS V14.01,2013-01-12 00:15:00,
2013-01-11 18:17:00,62.8,60.4,29.21,South,181,2.7,2.7,92,0.00,,---,0.04,VWS V14.01,2013-01-12 00:17:00,
2013-01-11 18:19:00,62.8,60.4,29.21,South,181,2.7,2.7,92,0.00,,---,0.04,VWS V14.01,2013-01-12 00:19:00,
2013-01-11 18:20:00,62.8,60.4,29.21,South,181,2.7,2.7,92,0.00,,---,0.04,VWS V14.01,2013-01-12 00:20:00,
2013-01-11 18:22:00,62.8,60.4,29.21,South,181,2.7,2.7,92,0.00,,---,0.04,VWS V14.01,2013-01-12 00:22:00,
2013-01-11 18:24:00,62.8,60.4,29.21,South,181,2.7,2.7,92,0.00,,---,0.04,VWS V14.01,2013-01-12 00:24:00,
2013-01-11 18:25:00,62.8,60.4,29.21,South,181,2.7,2.7,92,0.00,,---,0.04,VWS V14.01,2013-01-12 00:25:00,
2013-01-11 18:26:00,62.8,60.4,29.21,South,181,2.7,2.7,92,0.00,,---,0.04,VWS V14.01,2013-01-12 00:26:00,
2013-01-11 18:27:00,62.8,60.4,29.21,South,181,2.7,2.7,92,0.00,,---,0.04,VWS V14.01,2013-01-12 00:27:00,
2013-01-11 18:29:00,62.8,60.4,29.21,South,181,2.7,2.7,92,0.00,,---,0.04,VWS V14.01,2013-01-12 00:29:00,
2013-01-11 18:30:00,62.8,60.4,29.21,SSE,159,3.6,3.6,92,0.00,,---,0.04,VWS V14.01,2013-01-12 00:30:00,
2013-01-11 18:31:00,62.8,60.4,29.21,SSE,162,3.1,3.6,92,0.00,,---,0.04,VWS V14.01,2013-01-12 00:31:00,
2013-01-11 18:32:00,62.8,60.4,29.21,SSE,162,3.1,3.1,92,0.00,,---,0.04,VWS V14.01,2013-01-12 00:32:00,
2013-01-11 18:34:00,62.8,60.4,29.21,South,172,5.8,5.8,92,0.00,,---,0.04,VWS V14.01,2013-01-12 00:34:00,
2013-01-11 18:35:00,62.8,60.4,29.21,South,178,4.0,4.0,92,0.00,,---,0.04,VWS V14.01,2013-01-12 00:35:00,
2013-01-11 18:36:00,62.8,60.7,29.21,South,178,4.0,4.0,93,0.00,,---,0.04,VWS V14.01,2013-01-12 00:36:00,
2013-01-11 18:37:00,62.8,60.7,29.21,South,178,4.0,4.0,93,0.04,,---,0.08,VWS V14.01,2013-01-12 00:37:00,
2013-01-11 18:39:00,62.8,60.7,29.21,South,178,4.0,4.0,93,0.04,,---,0.08,VWS V14.01,2013-01-12 00:39:00,
2013-01-11 18:40:00,62.8,60.7,29.21,South,178,4.0,4.0,93,0.04,,---,0.08,VWS V14.01,2013-01-12 00:40:00,
2013-01-11 18:41:00,62.8,60.7,29.21,South,178,4.0,4.0,93,0.04,,---,0.08,VWS V14.01,2013-01-12 00:41:00,
2013-01-11 18:42:00,62.8,60.7,29.21,South,178,4.0,4.0,93,0.04,,---,0.08,VWS V14.01,2013-01-12 00:42:00,
2013-01-11 18:44:00,62.8,60.7,29.21,SSE,164,3.6,3.6,93,0.04,,---,0.08,VWS V14.01,2013-01-12 00:44:00,
2013-01-11 18:45:00,62.8,60.7,29.21,SSE,164,3.6,3.6,93,0.04,,---,0.08,VWS V14.01,2013-01-12 00:45:00,
2013-01-11 18:46:00,62.8,60.7,29.21,SSE,164,3.6,3.6,93,0.04,,---,0.08,VWS V14.01,2013-01-12 00:46:00,
2013-01-11 18:47:00,62.8,60.7,29.21,SSE,161,3.6,3.6,93,0.04,,---,0.08,VWS V14.01,2013-01-12 00:47:00,
2013-01-11 18:49:00,62.8,60.7,29.21,SSE,161,3.6,3.6,93,0.04,,---,0.08,VWS V14.01,2013-01-12 00:49:00,
2013-01-11 18:50:00,62.8,60.7,29.21,SSE,161,3.6,3.6,93,0.04,,---,0.08,VWS V14.01,2013-01-12 00:50:00,
2013-01-11 18:51:00,62.8,60.7,29.21,SSE,161,3.6,3.6,93,0.04,,---,0.08,VWS V14.01,2013-01-12 00:51:00,
2013-01-11 18:52:00,63.0,60.9,29.21,SSE,161,3.6,3.6,93,0.04,,---,0.08,VWS V14.01,2013-01-12 00:52:00,
2013-01-11 18:54:00,63.0,60.9,29.21,SSE,167,4.0,4.0,93,0.04,,---,0.08,VWS V14.01,2013-01-12 00:54:00,
2013-01-11 18:55:00,63.0,60.9,29.21,SSE,167,4.0,4.0,93,0.04,,---,0.08,VWS V14.01,2013-01-12 00:55:00,
2013-01-11 18:56:00,63.0,60.9,29.21,SSE,165,2.7,2.7,93,0.04,,---,0.08,VWS V14.01,2013-01-12 00:56:00,
2013-01-11 18:58:00,63.0,60.9,29.21,SSE,165,2.7,2.7,93,0.04,,---,0.08,VWS V14.01,2013-01-12 00:58:00,
2013-01-11 18:59:00,63.0,60.9,29.21,SSE,164,2.7,2.7,93,0.04,,---,0.08,VWS V14.01,2013-01-12 00:59:00,
2013-01-11 19:00:00,63.0,60.9,29.21,SSE,151,3.6,3.6,93,0.04,,---,0.08,VWS V14.01,2013-01-12 01:00:00,
2013-01-11 19:01:00,63.0,60.9,29.21,SSE,151,3.6,3.6,93,0.04,,---,0.08,VWS V14.01,2013-01-12 01:01:00,
2013-01-11 19:03:00,63.0,60.9,29.21,SSE,151,3.6,3.6,93,0.04,,---,0.08,VWS V14.01,2013-01-12 01:03:00,
2013-01-11 19:04:00,63.0,60.9,29.21,SSE,151,3.6,3.6,93,0.04,,---,0.08,VWS V14.01,2013-01-12 01:04:00,
2013-01-11 19:05:00,63.0,60.9,29.21,SSE,166,3.6,3.6,93,0.04,,---,0.08,VWS V14.01,2013-01-12 01:05:00,
2013-01-11 19:07:00,63.0,60.9,29.21,WSW,237,2.7,3.6,93,0.04,,---,0.08,VWS V14.01,2013-01-12 01:07:00,
2013-01-11 19:08:00,63.0,60.9,29.21,WSW,237,2.7,2.7,93,0.04,,---,0.08,VWS V14.01,2013-01-12 01:08:00,
2013-01-11 19:09:00,63.0,60.9,29.21,SSE,162,4.0,4.0,93,0.04,,---,0.08,VWS V14.01,2013-01-12 01:09:00,
2013-01-11 19:10:00,63.0,60.9,29.21,SSE,162,4.0,4.0,93,0.04,,---,0.08,VWS V14.01,2013-01-12 01:10:00,
2013-01-11 19:12:00,63.0,60.9,29.21,SSE,162,4.0,4.0,93,0.04,,---,0.08,VWS V14.01,2013-01-12 01:12:00,
2013-01-11 19:13:00,63.0,60.9,29.21,SSE,162,4.0,4.0,93,0.04,,---,0.08,VWS V14.01,2013-01-12 01:13:00,
2013-01-11 19:14:00,62.8,60.7,29.21,SSE,164,2.2,2.2,93,0.04,,---,0.08,VWS V14.01,2013-01-12 01:14:00,
2013-01-11 19:16:00,62.8,60.7,29.21,SSE,164,2.2,2.2,93,0.04,,---,0.08,VWS V14.01,2013-01-12 01:16:00,
2013-01-11 19:17:00,62.8,60.7,29.21,SSE,164,2.2,2.2,93,0.04,,---,0.08,VWS V14.01,2013-01-12 01:17:00,
2013-01-11 19:18:00,62.8,60.7,29.21,SSE,164,2.2,2.2,93,0.04,,---,0.08,VWS V14.01,2013-01-12 01:18:00,
2013-01-11 19:20:00,62.8,60.7,29.21,SSE,164,2.2,2.2,93,0.04,,---,0.08,VWS V14.01,2013-01-12 01:20:00,
2013-01-11 19:21:00,62.8,60.7,29.21,SSE,164,2.2,2.2,93,0.04,,---,0.08,VWS V14.01,2013-01-12 01:21:00,
2013-01-11 19:22:00,62.8,60.7,29.21,SSE,164,2.2,2.2,93,0.04,,---,0.08,VWS V14.01,2013-01-12 01:22:00,
2013-01-11 19:23:00,62.8,60.7,29.21,SSE,161,2.7,2.7,93,0.04,,---,0.08,VWS V14.01,2013-01-12 01:23:00,
2013-01-11 19:25:00,62.8,60.7,29.21,SSE,161,2.7,2.7,93,0.04,,---,0.08,VWS V14.01,2013-01-12 01:25:00,
2013-01-11 19:26:00,62.8,60.7,29.21,SSE,161,2.7,2.7,93,0.04,,---,0.08,VWS V14.01,2013-01-12 01:26:00,
2013-01-11 19:27:00,62.8,60.7,29.21,South,171,4.0,4.0,93,0.04,,---,0.08,VWS V14.01,2013-01-12 01:27:00,
2013-01-11 19:28:00,62.8,60.7,29.21,South,171,4.0,4.0,93,0.04,,---,0.08,VWS V14.01,2013-01-12 01:28:00,
2013-01-11 19:30:00,62.8,60.7,29.21,South,171,4.0,4.0,93,0.04,,---,0.08,VWS V14.01,2013-01-12 01:30:00,
2013-01-11 19:31:00,62.8,60.7,29.21,South,171,4.0,4.0,93,0.04,,---,0.08,VWS V14.01,2013-01-12 01:31:00,
2013-01-11 19:32:00,62.8,60.7,29.21,South,171,4.0,4.0,93,0.04,,---,0.08,VWS V14.01,2013-01-12 01:32:00,
2013-01-11 19:33:00,62.8,60.7,29.21,South,171,4.0,4.0,93,0.04,,---,0.08,VWS V14.01,2013-01-12 01:33:00,
2013-01-11 19:35:00,62.8,60.7,29.21,SSE,161,4.0,4.0,93,0.04,,---,0.08,VWS V14.01,2013-01-12 01:35:00,
2013-01-11 19:36:00,62.8,60.7,29.21,South,181,3.6,4.0,93,0.04,,---,0.08,VWS V14.01,2013-01-12 01:36:00,
2013-01-11 19:37:00,63.0,60.9,29.21,South,175,3.6,3.6,93,0.00,,---,0.08,VWS V14.01,2013-01-12 01:37:00,
2013-01-11 19:38:00,63.0,60.9,29.21,South,175,3.6,3.6,93,0.00,,---,0.08,VWS V14.01,2013-01-12 01:38:00,
2013-01-11 19:40:00,63.0,60.9,29.21,South,183,3.6,3.6,93,0.00,,---,0.08,VWS V14.01,2013-01-12 01:40:00,
2013-01-11 19:41:00,63.0,60.9,29.21,South,183,3.6,3.6,93,0.00,,---,0.08,VWS V14.01,2013-01-12 01:41:00,
2013-01-11 19:42:00,63.0,60.9,29.21,South,183,3.6,3.6,93,0.00,,---,0.08,VWS V14.01,2013-01-12 01:42:00,
2013-01-11 19:44:00,63.0,60.9,29.21,South,183,3.6,3.6,93,0.00,,---,0.08,VWS V14.01,2013-01-12 01:44:00,
2013-01-11 19:45:00,63.0,60.9,29.21,South,183,3.6,3.6,93,0.00,,---,0.08,VWS V14.01,2013-01-12 01:45:00,
2013-01-11 19:46:00,63.0,60.9,29.21,South,183,3.6,3.6,93,0.00,,---,0.08,VWS V14.01,2013-01-12 01:46:00,
2013-01-11 19:47:00,63.0,60.9,29.21,South,183,3.6,3.6,93,0.00,,---,0.08,VWS V14.01,2013-01-12 01:47:00,
2013-01-11 19:49:00,63.0,60.9,29.21,SSE,159,2.7,3.6,93,0.00,,---,0.08,VWS V14.01,2013-01-12 01:49:00,
2013-01-11 19:50:00,63.0,60.9,29.21,South,177,4.0,4.0,93,0.00,,---,0.08,VWS V14.01,2013-01-12 01:50:00,
2013-01-11 19:51:00,63.0,60.9,29.21,South,177,4.0,4.0,93,0.00,,---,0.08,VWS V14.01,2013-01-12 01:51:00,
2013-01-11 19:52:00,63.0,60.9,29.21,South,177,2.2,2.2,93,0.00,,---,0.08,VWS V14.01,2013-01-12 01:52:00,
2013-01-11 19:54:00,63.0,60.9,29.21,South,177,2.7,2.7,93,0.00,,---,0.08,VWS V14.01,2013-01-12 01:54:00,
2013-01-11 19:55:00,63.0,60.9,29.21,South,177,2.7,2.7,93,0.00,,---,0.08,VWS V14.01,2013-01-12 01:55:00,
2013-01-11 19:56:00,63.0,60.9,29.21,South,177,2.7,2.7,93,0.00,,---,0.08,VWS V14.01,2013-01-12 01:56:00,
2013-01-11 19:57:00,63.0,60.9,29.21,South,177,2.7,2.7,93,0.00,,---,0.08,VWS V14.01,2013-01-12 01:57:00,
2013-01-11 19:59:00,63.0,60.9,29.21,SSE,163,2.7,2.7,93,0.00,,---,0.08,VWS V14.01,2013-01-12 01:59:00,
2013-01-11 20:01:00,63.0,60.9,29.21,SSE,167,4.0,4.0,93,0.00,,---,0.08,VWS V14.01,2013-01-12 02:01:00,
2013-01-11 20:02:00,63.0,60.9,29.21,SSE,167,4.0,4.0,93,0.00,,---,0.08,VWS V14.01,2013-01-12 02:02:00,
2013-01-11 20:04:00,63.0,61.2,29.21,SSE,167,0.0,0.0,94,0.00,,---,0.08,VWS V14.01,2013-01-12 02:04:00,
2013-01-11 20:06:00,63.0,61.2,29.21,SSE,167,0.0,0.0,94,0.00,,---,0.08,VWS V14.01,2013-01-12 02:06:00,
2013-01-11 20:07:00,63.0,61.2,29.21,SSE,160,3.6,3.6,94,0.00,,---,0.08,VWS V14.01,2013-01-12 02:07:00,
2013-01-11 20:08:00,63.0,61.2,29.21,SSE,160,3.6,3.6,94,0.04,,---,0.12,VWS V14.01,2013-01-12 02:08:00,
2013-01-11 20:09:00,63.0,61.2,29.21,SSE,160,3.6,3.6,94,0.04,,---,0.12,VWS V14.01,2013-01-12 02:09:00,
2013-01-11 20:11:00,62.8,61.0,29.21,South,173,3.1,3.1,94,0.04,,---,0.12,VWS V14.01,2013-01-12 02:11:00,
2013-01-11 20:12:00,62.8,61.0,29.21,South,173,3.1,3.1,94,0.04,,---,0.12,VWS V14.01,2013-01-12 02:12:00,
2013-01-11 20:13:00,62.8,61.0,29.21,SSE,167,4.0,4.0,94,0.04,,---,0.12,VWS V14.01,2013-01-12 02:13:00,
2013-01-11 20:14:00,62.8,61.0,29.21,SSE,167,4.0,4.0,94,0.04,,---,0.12,VWS V14.01,2013-01-12 02:14:00,
2013-01-11 20:16:00,62.8,61.0,29.21,South,171,3.6,3.6,94,0.04,,---,0.12,VWS V14.01,2013-01-12 02:16:00,
2013-01-11 20:17:00,62.8,61.0,29.21,South,171,3.6,3.6,94,0.04,,---,0.12,VWS V14.01,2013-01-12 02:17:00,
2013-01-11 20:18:00,62.8,61.0,29.21,SSE,165,3.1,3.6,94,0.04,,---,0.12,VWS V14.01,2013-01-12 02:18:00,
2013-01-11 20:19:00,62.8,61.0,29.21,SSE,165,3.1,3.1,94,0.04,,---,0.12,VWS V14.01,2013-01-12 02:19:00,
2013-01-11 20:21:00,63.0,61.2,29.21,South,178,4.0,4.0,94,0.04,,---,0.12,VWS V14.01,2013-01-12 02:21:00,
2013-01-11 20:22:00,63.0,61.2,29.21,South,178,4.0,4.0,94,0.04,,---,0.12,VWS V14.01,2013-01-12 02:22:00,
2013-01-11 20:23:00,63.0,61.2,29.21,South,178,4.0,4.0,94,0.04,,---,0.12,VWS V14.01,2013-01-12 02:23:00,
2013-01-11 20:24:00,63.0,61.2,29.21,South,178,4.0,4.0,94,0.04,,---,0.12,VWS V14.01,2013-01-12 02:24:00,
2013-01-11 20:26:00,63.0,61.2,29.21,South,187,3.6,4.0,94,0.04,,---,0.12,VWS V14.01,2013-01-12 02:26:00,
2013-01-11 20:28:00,62.8,61.0,29.21,South,187,3.6,3.6,94,0.04,,---,0.12,VWS V14.01,2013-01-12 02:28:00,
2013-01-11 20:29:00,62.8,61.0,29.21,SSE,162,4.0,4.0,94,0.04,,---,0.12,VWS V14.01,2013-01-12 02:29:00,
2013-01-11 20:32:00,63.0,61.2,29.21,SSE,162,4.0,4.0,94,0.04,,---,0.12,VWS V14.01,2013-01-12 02:32:00,
2013-01-11 20:33:00,63.0,61.2,29.21,SSE,160,2.7,2.7,94,0.04,,---,0.12,VWS V14.01,2013-01-12 02:33:00,
2013-01-11 20:35:00,63.0,61.2,29.21,SSE,167,2.2,2.2,94,0.04,,---,0.12,VWS V14.01,2013-01-12 02:35:00,
2013-01-11 20:37:00,63.0,61.2,29.21,SSE,167,2.2,2.2,94,0.04,,---,0.12,VWS V14.01,2013-01-12 02:37:00,
2013-01-11 20:38:00,63.0,61.2,29.21,SSE,167,2.2,2.2,94,0.04,,---,0.12,VWS V14.01,2013-01-12 02:38:00,
2013-01-11 20:40:00,63.0,61.2,29.21,SSE,167,2.2,2.2,94,0.04,,---,0.12,VWS V14.01,2013-01-12 02:40:00,
2013-01-11 20:42:00,63.0,61.2,29.21,South,175,2.2,2.2,94,0.04,,---,0.12,VWS V14.01,2013-01-12 02:42:00,
2013-01-11 20:43:00,63.0,61.2,29.21,South,175,3.1,3.1,94,0.04,,---,0.12,VWS V14.01,2013-01-12 02:43:00,
2013-01-11 20:45:00,63.0,61.2,29.21,SSE,161,3.1,3.1,94,0.04,,---,0.12,VWS V14.01,2013-01-12 02:45:00,
2013-01-11 20:47:00,63.0,61.2,29.21,South,177,2.7,2.7,94,0.04,,---,0.12,VWS V14.01,2013-01-12 02:47:00,
2013-01-11 20:48:00,63.0,61.2,29.21,South,177,2.7,2.7,94,0.04,,---,0.12,VWS V14.01,2013-01-12 02:48:00,
2013-01-11 20:50:00,63.0,61.2,29.21,South,177,2.7,2.7,94,0.04,,---,0.12,VWS V14.01,2013-01-12 02:50:00,
2013-01-11 20:53:00,63.0,61.2,29.21,South,185,2.7,2.7,94,0.04,,---,0.12,VWS V14.01,2013-01-12 02:53:00,
2013-01-11 20:55:00,63.0,61.2,29.21,South,172,3.1,3.1,94,0.04,,---,0.12,VWS V14.01,2013-01-12 02:55:00,
2013-01-11 20:58:00,63.0,61.2,29.21,South,172,3.1,3.1,94,0.04,,---,0.12,VWS V14.01,2013-01-12 02:58:00,
2013-01-11 21:00:00,63.0,61.2,29.21,South,186,4.0,4.0,94,0.04,,---,0.12,VWS V14.01,2013-01-12 03:00:00,
2013-01-11 21:03:00,63.0,61.2,29.21,South,186,4.0,4.0,94,0.04,,---,0.12,VWS V14.01,2013-01-12 03:03:00,
2013-01-11 21:06:00,63.0,61.2,29.21,South,172,2.7,2.7,94,0.04,,---,0.12,VWS V14.01,2013-01-12 03:06:00,
2013-01-11 21:08:00,63.0,61.2,29.21,SSE,165,4.0,4.0,94,0.00,,---,0.12,VWS V14.01,2013-01-12 03:08:00,
2013-01-11 21:11:00,63.0,61.2,29.21,SSE,167,3.6,3.6,94,0.00,,---,0.12,VWS V14.01,2013-01-12 03:11:00,
2013-01-11 21:13:00,63.0,61.2,29.21,SSE,167,3.6,3.6,94,0.00,,---,0.12,VWS V14.01,2013-01-12 03:13:00,
2013-01-11 21:14:00,63.0,61.2,29.21,South,169,4.0,4.0,94,0.00,,---,0.12,VWS V14.01,2013-01-12 03:14:00,
2013-01-11 21:16:00,63.0,61.2,29.21,SSE,163,4.0,4.0,94,0.00,,---,0.12,VWS V14.01,2013-01-12 03:16:00,
2013-01-11 21:18:00,63.0,61.2,29.21,SSE,164,5.4,5.4,94,0.00,,---,0.12,VWS V14.01,2013-01-12 03:18:00,
2013-01-11 21:19:00,63.0,61.2,29.21,SSE,164,5.4,5.4,94,0.00,,---,0.12,VWS V14.01,2013-01-12 03:19:00,
2013-01-11 21:21:00,63.1,61.4,29.21,SSE,164,5.4,5.4,94,0.00,,---,0.12,VWS V14.01,2013-01-12 03:21:00,
2013-01-11 21:23:00,63.1,61.4,29.21,SSW,206,6.3,6.3,94,0.00,,---,0.12,VWS V14.01,2013-01-12 03:23:00,
2013-01-11 21:24:00,63.1,61.4,29.21,SSW,206,6.3,6.3,94,0.00,,---,0.12,VWS V14.01,2013-01-12 03:24:00,
2013-01-11 21:26:00,63.1,61.4,29.21,SSW,206,6.3,6.3,94,0.00,,---,0.12,VWS V14.01,2013-01-12 03:26:00,
2013-01-11 21:28:00,63.1,61.4,29.21,SSE,160,3.6,3.6,94,0.00,,---,0.12,VWS V14.01,2013-01-12 03:28:00,
2013-01-11 21:29:00,63.1,61.7,29.21,SSE,160,3.6,3.6,95,0.00,,---,0.12,VWS V14.01,2013-01-12 03:29:00,
2013-01-11 21:31:00,63.1,61.7,29.21,SSE,160,3.6,3.6,95,0.00,,---,0.12,VWS V14.01,2013-01-12 03:31:00,
2013-01-11 21:33:00,63.1,61.7,29.21,SSE,160,3.6,3.6,95,0.00,,---,0.12,VWS V14.01,2013-01-12 03:33:00,
2013-01-11 21:34:00,63.1,61.7,29.21,SSE,150,4.0,4.0,95,0.00,,---,0.12,VWS V14.01,2013-01-12 03:34:00,
2013-01-11 21:36:00,63.1,61.7,29.21,SSE,147,4.9,4.9,95,0.00,,---,0.12,VWS V14.01,2013-01-12 03:36:00,
2013-01-11 21:38:00,63.1,61.7,29.21,South,172,3.6,4.9,95,0.00,,---,0.12,VWS V14.01,2013-01-12 03:38:00,
2013-01-11 21:39:00,63.1,61.7,29.21,South,172,3.6,3.6,95,0.00,,---,0.12,VWS V14.01,2013-01-12 03:39:00,
2013-01-11 21:41:00,63.3,61.9,29.21,SSE,159,5.4,5.4,95,0.00,,---,0.12,VWS V14.01,2013-01-12 03:41:00,
2013-01-11 21:43:00,63.3,61.9,29.21,SSE,159,5.4,5.4,95,0.00,,---,0.12,VWS V14.01,2013-01-12 03:43:00,
2013-01-11 21:44:00,63.3,61.9,29.21,SSE,159,5.4,5.4,95,0.00,,---,0.12,VWS V14.01,2013-01-12 03:44:00,
2013-01-11 21:47:00,63.3,61.9,29.21,South,177,3.6,3.6,95,0.00,,---,0.12,VWS V14.01,2013-01-12 03:47:00,
2013-01-11 21:48:00,63.3,61.9,29.21,South,177,3.6,3.6,95,0.00,,---,0.12,VWS V14.01,2013-01-12 03:48:00,
2013-01-11 21:49:00,63.3,61.9,29.21,South,175,4.9,4.9,95,0.00,,---,0.12,VWS V14.01,2013-01-12 03:49:00,
2013-01-11 21:52:00,63.3,61.9,29.21,South,169,5.4,5.4,95,0.00,,---,0.12,VWS V14.01,2013-01-12 03:52:00,
2013-01-11 21:53:00,63.3,61.9,29.21,SSE,167,3.6,3.6,95,0.00,,---,0.12,VWS V14.01,2013-01-12 03:53:00,
2013-01-11 21:54:00,63.3,61.9,29.21,SSE,167,3.6,3.6,95,0.00,,---,0.12,VWS V14.01,2013-01-12 03:54:00,
2013-01-11 21:57:00,63.3,61.9,29.21,SSE,167,3.6,3.6,95,0.00,,---,0.12,VWS V14.01,2013-01-12 03:57:00,
2013-01-11 21:58:00,63.3,61.9,29.21,SSE,167,3.6,3.6,95,0.00,,---,0.12,VWS V14.01,2013-01-12 03:58:00,
2013-01-11 21:59:00,63.3,61.9,29.21,SSE,167,3.6,3.6,95,0.00,,---,0.12,VWS V14.01,2013-01-12 03:59:00,
2013-01-11 22:02:00,63.3,61.9,29.21,SSW,192,4.0,4.0,95,0.00,,---,0.12,VWS V14.01,2013-01-12 04:02:00,
2013-01-11 22:04:00,63.3,61.9,29.21,SSW,192,4.0,4.0,95,0.00,,---,0.12,VWS V14.01,2013-01-12 04:04:00,
2013-01-11 22:05:00,63.3,61.9,29.21,SSW,192,4.0,4.0,95,0.00,,---,0.12,VWS V14.01,2013-01-12 04:05:00,
2013-01-11 22:07:00,63.3,61.9,29.21,SSE,157,4.9,4.9,95,0.00,,---,0.12,VWS V14.01,2013-01-12 04:07:00,
2013-01-11 22:09:00,63.3,61.9,29.21,SSE,157,4.9,4.9,95,0.00,,---,0.12,VWS V14.01,2013-01-12 04:09:00,
2013-01-11 22:10:00,63.3,61.9,29.21,SSE,153,4.0,4.9,95,0.00,,---,0.12,VWS V14.01,2013-01-12 04:10:00,
2013-01-11 22:13:00,63.5,62.0,29.21,SSE,160,5.4,5.4,95,0.00,,---,0.12,VWS V14.01,2013-01-12 04:13:00,
2013-01-11 22:14:00,63.5,62.0,29.21,SSE,160,5.4,5.4,95,0.00,,---,0.12,VWS V14.01,2013-01-12 04:14:00,
2013-01-11 22:15:00,63.5,62.0,29.21,South,172,2.7,5.4,95,0.00,,---,0.12,VWS V14.01,2013-01-12 04:15:00,
2013-01-11 22:18:00,63.5,62.0,29.21,South,172,2.7,2.7,95,0.00,,---,0.12,VWS V14.01,2013-01-12 04:18:00,
2013-01-11 22:19:00,63.5,62.0,29.21,South,172,2.7,2.7,95,0.00,,---,0.12,VWS V14.01,2013-01-12 04:19:00,
2013-01-11 22:20:00,63.5,62.0,29.21,SSE,161,4.0,4.0,95,0.00,,---,0.12,VWS V14.01,2013-01-12 04:20:00,
2013-01-11 22:23:00,63.5,62.0,29.21,WSW,237,4.9,4.9,95,0.00,,---,0.12,VWS V14.01,2013-01-12 04:23:00,
2013-01-11 22:24:00,63.5,62.0,29.21,South,170,4.0,4.9,95,0.00,,---,0.12,VWS V14.01,2013-01-12 04:24:00,
2013-01-11 22:25:00,63.5,62.0,29.21,SSE,163,6.7,6.7,95,0.00,,---,0.12,VWS V14.01,2013-01-12 04:25:00,
2013-01-11 22:28:00,63.5,62.0,29.21,SSE,158,2.7,2.7,95,0.00,,---,0.12,VWS V14.01,2013-01-12 04:28:00,
2013-01-11 22:29:00,63.5,62.0,29.21,SSE,164,4.0,4.0,95,0.00,,---,0.12,VWS V14.01,2013-01-12 04:29:00,
2013-01-11 22:30:00,63.5,62.0,29.21,SSE,164,4.0,4.0,95,0.00,,---,0.12,VWS V14.01,2013-01-12 04:30:00,
2013-01-11 22:33:00,63.5,62.0,29.21,South,177,3.1,3.1,95,0.00,,---,0.12,VWS V14.01,2013-01-12 04:33:00,
2013-01-11 22:34:00,63.5,62.0,29.21,South,177,3.1,3.1,95,0.00,,---,0.12,VWS V14.01,2013-01-12 04:34:00,
2013-01-11 22:35:00,63.5,62.0,29.21,South,177,3.1,3.1,95,0.00,,---,0.12,VWS V14.01,2013-01-12 04:35:00,
2013-01-11 22:38:00,63.5,62.0,29.21,South,169,6.7,6.7,95,0.00,,---,0.12,VWS V14.01,2013-01-12 04:38:00,
2013-01-11 22:39:00,63.5,62.0,29.21,South,169,6.7,6.7,95,0.00,,---,0.12,VWS V14.01,2013-01-12 04:39:00,
2013-01-11 22:41:00,63.5,62.0,29.21,South,169,6.7,6.7,95,0.00,,---,0.12,VWS V14.01,2013-01-12 04:41:00,
2013-01-11 22:43:00,63.5,62.0,29.21,South,185,4.9,4.9,95,0.00,,---,0.12,VWS V14.01,2013-01-12 04:43:00,
2013-01-11 22:44:00,63.5,62.0,29.21,SSE,159,3.6,3.6,95,0.00,,---,0.12,VWS V14.01,2013-01-12 04:44:00,
2013-01-11 22:45:00,63.5,62.0,29.21,SSE,159,3.6,3.6,95,0.00,,---,0.12,VWS V14.01,2013-01-12 04:45:00,
2013-01-11 22:46:00,63.5,62.0,29.21,SSE,159,3.6,3.6,95,0.00,,---,0.12,VWS V14.01,2013-01-12 04:46:00,
2013-01-11 22:48:00,63.5,62.0,29.21,SSE,154,2.7,2.7,95,0.00,,---,0.12,VWS V14.01,2013-01-12 04:48:00,
2013-01-11 22:49:00,63.5,62.0,29.21,SSE,154,2.7,2.7,95,0.00,,---,0.12,VWS V14.01,2013-01-12 04:49:00,
2013-01-11 22:50:00,63.5,62.0,29.21,SSE,154,2.7,2.7,95,0.00,,---,0.12,VWS V14.01,2013-01-12 04:50:00,
2013-01-11 22:51:00,63.5,62.0,29.21,SSE,154,2.7,2.7,95,0.00,,---,0.12,VWS V14.01,2013-01-12 04:51:00,
2013-01-11 22:54:00,63.5,62.0,29.21,South,173,4.9,4.9,95,0.00,,---,0.12,VWS V14.01,2013-01-12 04:54:00,
2013-01-11 22:55:00,63.5,62.0,29.21,South,171,4.0,4.9,95,0.00,,---,0.12,VWS V14.01,2013-01-12 04:55:00,
2013-01-11 22:56:00,63.5,62.0,29.21,South,176,3.6,3.6,95,0.00,,---,0.12,VWS V14.01,2013-01-12 04:56:00,
2013-01-11 22:59:00,63.5,62.0,29.21,South,175,4.0,4.0,95,0.00,,---,0.12,VWS V14.01,2013-01-12 04:59:00,
2013-01-11 23:00:00,63.5,62.0,29.21,South,177,6.3,6.3,95,0.00,,---,0.12,VWS V14.01,2013-01-12 05:00:00,
2013-01-11 23:01:00,63.5,62.0,29.21,South,177,6.3,6.3,95,0.00,,---,0.00,VWS V14.01,2013-01-12 05:01:00,
2013-01-11 23:05:00,63.3,61.9,29.21,SSE,163,4.0,4.0,95,0.00,,---,0.00,VWS V14.01,2013-01-12 05:05:00,
2013-01-11 23:06:00,63.3,61.9,29.21,SSE,163,4.0,4.0,95,0.00,,---,0.00,VWS V14.01,2013-01-12 05:06:00,
2013-01-11 23:10:00,63.3,61.9,29.21,South,178,3.6,3.6,95,0.00,,---,0.00,VWS V14.01,2013-01-12 05:10:00,
2013-01-11 23:11:00,63.3,61.9,29.21,South,178,3.6,3.6,95,0.00,,---,0.00,VWS V14.01,2013-01-12 05:11:00,
2013-01-11 23:15:00,63.3,61.9,29.21,South,177,3.1,3.1,95,0.00,,---,0.00,VWS V14.01,2013-01-12 05:15:00,
2013-01-11 23:16:00,63.3,61.9,29.21,South,177,3.1,3.1,95,0.00,,---,0.00,VWS V14.01,2013-01-12 05:16:00,
2013-01-11 23:20:00,63.3,61.9,29.21,SW,229,0.0,0.0,95,0.00,,---,0.00,VWS V14.01,2013-01-12 05:20:00,
2013-01-11 23:21:00,63.3,61.9,29.21,SW,229,0.0,0.0,95,0.00,,---,0.00,VWS V14.01,2013-01-12 05:21:00,
2013-01-11 23:25:00,63.3,61.9,29.21,SSE,164,2.7,2.7,95,0.00,,---,0.00,VWS V14.01,2013-01-12 05:25:00,
2013-01-11 23:26:00,63.3,61.9,29.21,SSE,164,2.7,2.7,95,0.00,,---,0.00,VWS V14.01,2013-01-12 05:26:00,
2013-01-11 23:30:00,63.3,61.9,29.21,South,170,4.0,4.0,95,0.00,,---,0.00,VWS V14.01,2013-01-12 05:30:00,
2013-01-11 23:31:00,63.3,61.9,29.21,South,170,4.0,4.0,95,0.00,,---,0.00,VWS V14.01,2013-01-12 05:31:00,
2013-01-11 23:35:00,63.3,62.2,29.21,South,172,5.4,5.4,96,0.00,,---,0.00,VWS V14.01,2013-01-12 05:35:00,
2013-01-11 23:36:00,63.3,62.2,29.21,South,172,5.4,5.4,96,0.00,,---,0.00,VWS V14.01,2013-01-12 05:36:00,
2013-01-11 23:40:00,63.3,62.2,29.18,SSE,167,5.4,5.4,96,0.00,,---,0.00,VWS V14.01,2013-01-12 05:40:00,
2013-01-11 23:41:00,63.3,62.2,29.18,SSE,167,5.4,5.4,96,0.00,,---,0.00,VWS V14.01,2013-01-12 05:41:00,
2013-01-11 23:42:00,63.3,62.2,29.18,SSE,167,5.4,5.4,96,0.00,,---,0.00,VWS V14.01,2013-01-12 05:42:00,
2013-01-11 23:45:00,63.3,62.2,29.18,South,178,6.3,6.3,96,0.00,,---,0.00,VWS V14.01,2013-01-12 05:45:00,
2013-01-11 23:46:00,63.3,62.2,29.18,South,178,6.3,6.3,96,0.00,,---,0.00,VWS V14.01,2013-01-12 05:46:00,
2013-01-11 23:47:00,63.3,62.2,29.18,South,178,6.3,6.3,96,0.00,,---,0.00,VWS V14.01,2013-01-12 05:47:00,
2013-01-11 23:51:00,63.3,62.2,29.18,SSE,160,6.3,6.3,96,0.00,,---,0.00,VWS V14.01,2013-01-12 05:51:00,
2013-01-11 23:52:00,63.3,62.2,29.18,SSE,160,6.3,6.3,96,0.00,,---,0.00,VWS V14.01,2013-01-12 05:52:00,
2013-01-11 23:56:00,63.3,62.2,29.18,South,183,4.0,4.0,96,0.00,,---,0.00,VWS V14.01,2013-01-12 05:56:00,
2013-01-11 23:57:00,63.5,62.3,29.18,South,183,4.0,4.0,96,0.00,,---,0.00,VWS V14.01,2013-01-12 05:57:00,